TGL26F RJOO-OBBI

Flight info

Callsign TGL26F
Flight time 11h 3m
Altitude 36000
Route TOZAN Y38 SAPRA G585 SEL G597 AGAVO/K0911S1100 A591 IKEKA W4 HCH W200 DOVIV W55 PAMRU W34 VYK B215 PEGSO/K0907S1160 B215 NIRUV W199 ALGOT V67 JSG W619 BILDA W112 DJQ/K0893S1220 W112 PURPA/N0487F400 G325 ZB J133 PARLO G325 KALAT G452 ZDN A453 SOLOB L768 ORDIG
Aircraft A359/H-SDE2E3GHIJ3J4J5LM1ORWXY/LB1D1

Departure

Time 2026-04-27 09:24
Airport Osaka Itami International Airport (RJOO)

Arrival

Time 2026-04-27 20:27
Airport Bahrain International Airport (OBBI)
Time Latitude Longitude Altitude Speed Heading
2026-04-27 08:46 34.78854 135.44164 47 ft 0 kts 59°
2026-04-27 09:14 34.78849 135.44155 33 ft 4 kts 57°
2026-04-27 09:15 34.78834 135.44128 31 ft 4 kts 53°
2026-04-27 09:15 34.78819 135.44102 25 ft 4 kts 65°
2026-04-27 09:15 34.78812 135.44078 49 ft 3 kts 87°
2026-04-27 09:15 34.78814 135.44050 48 ft 4 kts 115°
2026-04-27 09:16 34.78827 135.44025 47 ft 4 kts 134°
2026-04-27 09:16 34.78841 135.44008 47 ft 1 kts 135°
2026-04-27 09:16 34.78843 135.44005 47 ft 0 kts 135°
2026-04-27 09:19 34.78822 135.44031 47 ft 9 kts 135°
2026-04-27 09:20 34.78752 135.44116 50 ft 18 kts 135°
2026-04-27 09:20 34.78655 135.44233 53 ft 22 kts 135°
2026-04-27 09:20 34.78529 135.44332 49 ft 22 kts 171°
2026-04-27 09:20 34.78370 135.44336 50 ft 24 kts 179°
2026-04-27 09:21 34.78198 135.44342 51 ft 24 kts 163°
2026-04-27 09:21 34.78069 135.44465 50 ft 23 kts 134°
2026-04-27 09:21 34.77954 135.44605 50 ft 23 kts 135°
2026-04-27 09:21 34.77850 135.44730 50 ft 15 kts 135°
2026-04-27 09:22 34.77773 135.44823 50 ft 16 kts 135°
2026-04-27 09:22 34.77690 135.44923 49 ft 17 kts 135°
2026-04-27 09:22 34.77603 135.45029 49 ft 18 kts 135°
2026-04-27 09:22 34.77511 135.45140 47 ft 19 kts 135°
2026-04-27 09:23 34.77417 135.45258 47 ft 20 kts 136°
2026-04-27 09:23 34.77295 135.45297 47 ft 18 kts 208°
2026-04-27 09:23 34.77250 135.45193 49 ft 12 kts 268°
2026-04-27 09:23 34.77319 135.45063 49 ft 31 kts 316°
2026-04-27 09:24 34.77621 135.44692 50 ft 93 kts 315°
2026-04-27 09:24 34.78227 135.43970 51 ft 149 kts 316°
2026-04-27 09:24 34.78967 135.43080 666 ft 144 kts 314°
2026-04-27 09:24 34.79669 135.42201 1145 ft 154 kts 315°
2026-04-27 09:25 34.80206 135.40981 1311 ft 175 kts 278°
2026-04-27 09:25 34.79836 135.39543 1517 ft 197 kts 232°
2026-04-27 09:25 34.78572 135.38714 1779 ft 217 kts 190°
2026-04-27 09:25 34.77009 135.38540 2048 ft 236 kts 185°
2026-04-27 09:26 34.75339 135.38318 2394 ft 251 kts 189°
2026-04-27 09:26 34.73588 135.37965 2925 ft 258 kts 192°
2026-04-27 09:26 34.71817 135.37545 3540 ft 261 kts 193°
2026-04-27 09:26 34.70032 135.37069 4132 ft 265 kts 197°
2026-04-27 09:27 34.68378 135.36109 4656 ft 265 kts 222°
2026-04-27 09:27 34.67270 135.34359 5237 ft 263 kts 249°
2026-04-27 09:27 34.66672 135.32262 5808 ft 266 kts 257°
2026-04-27 09:27 34.66303 135.30059 6416 ft 267 kts 266°
2026-04-27 09:28 34.66227 135.27799 7038 ft 268 kts 275°
2026-04-27 09:28 34.66465 135.25559 7703 ft 268 kts 284°
2026-04-27 09:28 34.66878 135.23352 8385 ft 270 kts 285°
2026-04-27 09:28 34.67311 135.21119 9063 ft 273 kts 285°
2026-04-27 09:29 34.67750 135.18872 9743 ft 275 kts 286°
2026-04-27 09:29 34.68509 135.16743 10295 ft 279 kts 304°
2026-04-27 09:29 34.69839 135.14951 10622 ft 293 kts 317°
2026-04-27 09:29 34.71382 135.13231 10943 ft 307 kts 317°
2026-04-27 09:30 34.72983 135.11428 11291 ft 321 kts 316°
2026-04-27 09:30 34.74640 135.09538 11626 ft 333 kts 316°
2026-04-27 09:30 34.76344 135.07581 11979 ft 345 kts 315°
2026-04-27 09:30 34.78125 135.05529 12308 ft 356 kts 315°
2026-04-27 09:31 34.79946 135.03427 12740 ft 364 kts 315°
2026-04-27 09:31 34.81785 135.01304 13253 ft 368 kts 315°
2026-04-27 09:31 34.83659 134.99137 13786 ft 371 kts 314°
2026-04-27 09:31 34.85534 134.96966 14315 ft 374 kts 314°
2026-04-27 09:32 34.87421 134.94780 14850 ft 376 kts 314°
2026-04-27 09:32 34.89328 134.92570 15402 ft 378 kts 314°
2026-04-27 09:32 34.91232 134.90367 15958 ft 379 kts 314°
2026-04-27 09:32 34.93155 134.88139 16501 ft 381 kts 313°
2026-04-27 09:33 34.95076 134.85903 17048 ft 384 kts 313°
2026-04-27 09:33 34.97011 134.83649 17583 ft 386 kts 313°
2026-04-27 09:33 34.98960 134.81379 18117 ft 388 kts 313°
2026-04-27 09:33 35.00915 134.79102 18628 ft 389 kts 313°
2026-04-27 09:34 35.02876 134.76819 19185 ft 389 kts 312°
2026-04-27 09:34 35.04823 134.74548 19687 ft 390 kts 312°
2026-04-27 09:34 35.06791 134.72249 20217 ft 390 kts 312°
2026-04-27 09:34 35.08752 134.69959 20740 ft 390 kts 311°
2026-04-27 09:35 35.10713 134.67668 21269 ft 391 kts 311°
2026-04-27 09:35 35.12680 134.65368 21852 ft 390 kts 311°
2026-04-27 09:35 35.14640 134.63075 22441 ft 391 kts 311°
2026-04-27 09:35 35.16574 134.60810 23015 ft 391 kts 311°
2026-04-27 09:36 35.18570 134.58471 23515 ft 393 kts 311°
2026-04-27 09:36 35.20527 134.56180 23976 ft 394 kts 311°
2026-04-27 09:36 35.22508 134.53860 24414 ft 395 kts 310°
2026-04-27 09:36 35.24444 134.51472 24835 ft 395 kts 307°
2026-04-27 09:37 35.26099 134.48820 25245 ft 391 kts 298°
2026-04-27 09:37 35.27354 134.45889 25695 ft 389 kts 290°
2026-04-27 09:37 35.28206 134.42738 26109 ft 390 kts 284°
2026-04-27 09:37 35.28872 134.39526 26513 ft 391 kts 283°
2026-04-27 09:38 35.29483 134.36264 26879 ft 393 kts 282°
2026-04-27 09:38 35.30069 134.33000 27392 ft 392 kts 282°
2026-04-27 09:38 35.30652 134.29742 27848 ft 393 kts 282°
2026-04-27 09:38 35.31243 134.26471 28251 ft 394 kts 282°
2026-04-27 09:39 35.31841 134.23190 28634 ft 395 kts 282°
2026-04-27 09:39 35.32444 134.19908 29032 ft 396 kts 282°
2026-04-27 09:39 35.33054 134.16609 29392 ft 397 kts 282°
2026-04-27 09:39 35.33673 134.13306 29729 ft 398 kts 282°
2026-04-27 09:40 35.34304 134.10011 30182 ft 396 kts 282°
2026-04-27 09:40 35.34931 134.06752 30507 ft 395 kts 282°
2026-04-27 09:40 35.35564 134.03462 30924 ft 393 kts 282°
2026-04-27 09:40 35.36187 134.00214 31293 ft 391 kts 282°
2026-04-27 09:41 35.36802 133.96991 31811 ft 387 kts 282°
2026-04-27 09:41 35.37409 133.93797 32265 ft 384 kts 282°
2026-04-27 09:41 35.38012 133.90619 32638 ft 382 kts 282°
2026-04-27 09:41 35.38611 133.87457 33018 ft 380 kts 282°
2026-04-27 09:42 35.39206 133.84308 33394 ft 378 kts 281°
2026-04-27 09:42 35.39798 133.81181 33721 ft 376 kts 281°
2026-04-27 09:42 35.40385 133.78069 34063 ft 374 kts 281°
2026-04-27 09:42 35.40964 133.74988 34313 ft 374 kts 281°
2026-04-27 09:43 35.41553 133.71856 34515 ft 374 kts 281°
2026-04-27 09:43 35.42135 133.68755 34706 ft 374 kts 281°
2026-04-27 09:43 35.42718 133.65641 34906 ft 374 kts 281°
2026-04-27 09:43 35.43299 133.62536 35106 ft 374 kts 281°
2026-04-27 09:44 35.43877 133.59440 35334 ft 373 kts 281°
2026-04-27 09:44 35.44458 133.56332 35495 ft 374 kts 281°
2026-04-27 09:44 35.45036 133.53233 35660 ft 374 kts 281°
2026-04-27 09:44 35.45618 133.50109 35848 ft 374 kts 281°
2026-04-27 09:45 35.46196 133.46996 35944 ft 376 kts 281°
2026-04-27 09:45 35.47366 133.40682 35942 ft 381 kts 281°
2026-04-27 09:46 35.48526 133.34407 35939 ft 380 kts 281°
2026-04-27 09:46 35.49692 133.28085 35941 ft 379 kts 281°
2026-04-27 09:47 35.50856 133.21783 35939 ft 379 kts 281°
2026-04-27 09:47 35.52008 133.15478 35940 ft 379 kts 280°
2026-04-27 09:48 35.53155 133.09184 35942 ft 378 kts 280°
2026-04-27 09:48 35.54102 133.02833 35949 ft 377 kts 277°
2026-04-27 09:49 35.54810 132.96454 35944 ft 377 kts 277°
2026-04-27 09:49 35.55545 132.90077 35943 ft 377 kts 277°
2026-04-27 09:50 35.56322 132.83714 35945 ft 377 kts 277°
2026-04-27 09:50 35.57112 132.77358 35946 ft 376 kts 277°
2026-04-27 09:51 35.57898 132.71005 35953 ft 376 kts 277°
2026-04-27 09:51 35.58700 132.64661 35958 ft 376 kts 277°
2026-04-27 09:52 35.59539 132.58323 35963 ft 376 kts 278°
2026-04-27 09:52 35.60375 132.51994 35952 ft 375 kts 277°
2026-04-27 09:53 35.61196 132.45701 35954 ft 375 kts 277°
2026-04-27 09:53 35.62015 132.39376 35968 ft 375 kts 277°
2026-04-27 09:54 35.62830 132.33055 35966 ft 374 kts 277°
2026-04-27 09:54 35.63642 132.26732 35960 ft 374 kts 277°
2026-04-27 09:55 35.64449 132.20419 35959 ft 374 kts 277°
2026-04-27 09:55 35.65652 132.10955 35972 ft 373 kts 277°
2026-04-27 09:56 35.66450 132.04648 35957 ft 373 kts 277°
2026-04-27 09:56 35.67244 131.98343 35957 ft 373 kts 277°
2026-04-27 09:57 35.68035 131.92034 35957 ft 373 kts 277°
2026-04-27 09:57 35.68821 131.85737 35962 ft 372 kts 277°
2026-04-27 09:58 35.69603 131.79444 35963 ft 372 kts 277°
2026-04-27 09:58 35.70382 131.73147 35955 ft 372 kts 277°
2026-04-27 09:59 35.71156 131.66866 35970 ft 372 kts 277°
2026-04-27 09:59 35.71928 131.60579 35958 ft 371 kts 277°
2026-04-27 10:00 35.72690 131.54335 35958 ft 371 kts 277°
2026-04-27 10:00 35.73454 131.48055 35963 ft 371 kts 277°
2026-04-27 10:01 35.74212 131.41788 35954 ft 370 kts 277°
2026-04-27 10:01 35.74968 131.35518 35965 ft 370 kts 277°
2026-04-27 10:02 35.75720 131.29246 35955 ft 370 kts 277°
2026-04-27 10:02 35.76471 131.22979 35956 ft 370 kts 277°
2026-04-27 10:03 35.77213 131.16723 35964 ft 369 kts 277°
2026-04-27 10:03 35.77953 131.10462 35958 ft 370 kts 277°
2026-04-27 10:04 35.78691 131.04194 35957 ft 370 kts 277°
2026-04-27 10:04 35.79427 130.97919 35957 ft 371 kts 277°
2026-04-27 10:05 35.80162 130.91623 35958 ft 372 kts 277°
2026-04-27 10:05 35.80895 130.85308 35958 ft 373 kts 276°
2026-04-27 10:06 35.81627 130.78986 35960 ft 373 kts 276°
2026-04-27 10:06 35.82355 130.72658 35958 ft 374 kts 276°
2026-04-27 10:07 35.83127 130.66320 35959 ft 374 kts 277°
2026-04-27 10:07 35.83952 130.59981 35958 ft 375 kts 277°
2026-04-27 10:08 35.84635 130.54702 35957 ft 376 kts 277°
2026-04-27 10:08 35.85576 130.47296 35958 ft 377 kts 277°
2026-04-27 10:09 35.86248 130.41950 35956 ft 377 kts 277°
2026-04-27 10:09 35.87048 130.35560 35959 ft 378 kts 277°
2026-04-27 10:10 35.87848 130.29143 35954 ft 379 kts 277°
2026-04-27 10:10 35.88639 130.22765 35954 ft 380 kts 277°
2026-04-27 10:11 35.89435 130.16323 35957 ft 380 kts 277°
2026-04-27 10:11 35.90235 130.09825 35955 ft 381 kts 277°
2026-04-27 10:12 35.91023 130.03393 35958 ft 382 kts 277°
2026-04-27 10:12 35.91819 129.96866 35955 ft 383 kts 277°
2026-04-27 10:13 35.92603 129.90402 35958 ft 384 kts 277°
2026-04-27 10:13 35.93390 129.83889 35950 ft 385 kts 277°
2026-04-27 10:14 35.94181 129.77352 35953 ft 385 kts 276°
2026-04-27 10:14 35.94962 129.70805 35949 ft 386 kts 276°
2026-04-27 10:15 35.95741 129.64248 35950 ft 387 kts 276°
2026-04-27 10:15 35.96518 129.57685 35942 ft 388 kts 276°
2026-04-27 10:16 35.97435 129.51111 35947 ft 390 kts 282°
2026-04-27 10:16 35.99420 129.44843 35942 ft 398 kts 293°
2026-04-27 10:17 36.02486 129.39085 35934 ft 403 kts 298°
2026-04-27 10:17 36.05764 129.33453 35934 ft 405 kts 299°
2026-04-27 10:18 36.09069 129.27800 35929 ft 406 kts 298°
2026-04-27 10:18 36.12359 129.22113 35928 ft 406 kts 298°
2026-04-27 10:19 36.15630 129.16425 35922 ft 406 kts 298°
2026-04-27 10:19 36.18904 129.10714 35915 ft 407 kts 298°
2026-04-27 10:20 36.22185 129.04984 35912 ft 408 kts 298°
2026-04-27 10:20 36.25468 128.99242 35914 ft 409 kts 298°
2026-04-27 10:21 36.28752 128.93490 35903 ft 410 kts 298°
2026-04-27 10:21 36.32045 128.87714 35901 ft 411 kts 298°
2026-04-27 10:22 36.35350 128.81914 35882 ft 412 kts 298°
2026-04-27 10:22 36.38653 128.76100 35890 ft 412 kts 298°
2026-04-27 10:23 36.41952 128.70276 35881 ft 412 kts 298°
2026-04-27 10:23 36.45254 128.64439 35879 ft 413 kts 299°
2026-04-27 10:24 36.48555 128.58596 35879 ft 413 kts 299°
2026-04-27 10:24 36.51840 128.52773 35877 ft 414 kts 299°
2026-04-27 10:25 36.55163 128.46875 35875 ft 414 kts 299°
2026-04-27 10:25 36.58467 128.40996 35879 ft 415 kts 299°
2026-04-27 10:26 36.61774 128.35105 35883 ft 415 kts 299°
2026-04-27 10:26 36.65064 128.29246 35881 ft 416 kts 299°
2026-04-27 10:27 36.68419 128.23368 35888 ft 417 kts 300°
2026-04-27 10:27 36.71789 128.17476 35889 ft 418 kts 300°
2026-04-27 10:28 36.75162 128.11569 35890 ft 418 kts 300°
2026-04-27 10:28 36.78515 128.05650 35891 ft 418 kts 300°
2026-04-27 10:29 36.81865 127.99719 35893 ft 419 kts 300°
2026-04-27 10:29 36.85230 127.93765 35898 ft 420 kts 300°
2026-04-27 10:30 36.88587 127.87816 35902 ft 420 kts 300°
2026-04-27 10:30 36.91948 127.81832 35901 ft 420 kts 300°
2026-04-27 10:31 36.95311 127.75851 35906 ft 420 kts 300°
2026-04-27 10:31 36.98677 127.69861 35906 ft 421 kts 300°
2026-04-27 10:32 37.02035 127.63872 35904 ft 421 kts 300°
2026-04-27 10:32 37.05395 127.57882 35908 ft 421 kts 300°
2026-04-27 10:33 37.08741 127.51877 35915 ft 420 kts 300°
2026-04-27 10:33 37.12084 127.45868 35919 ft 421 kts 300°
2026-04-27 10:34 37.15436 127.39861 35908 ft 420 kts 300°
2026-04-27 10:34 37.18776 127.33838 35922 ft 420 kts 300°
2026-04-27 10:35 37.22084 127.27858 35925 ft 421 kts 300°
2026-04-27 10:35 37.25440 127.21787 35922 ft 421 kts 300°
2026-04-27 10:36 37.28770 127.15759 35925 ft 421 kts 300°
2026-04-27 10:36 37.32081 127.09754 35923 ft 421 kts 300°
2026-04-27 10:37 37.35411 127.03706 35926 ft 421 kts 300°
2026-04-27 10:37 37.38629 126.97569 35927 ft 418 kts 294°
2026-04-27 10:38 37.40748 126.90851 35925 ft 412 kts 281°
2026-04-27 10:38 37.41373 126.83723 35913 ft 411 kts 271°
2026-04-27 10:39 37.41373 126.76523 35913 ft 412 kts 270°
2026-04-27 10:39 37.41297 126.69324 35909 ft 412 kts 270°
2026-04-27 10:40 37.41236 126.62102 35905 ft 412 kts 270°
2026-04-27 10:40 37.41191 126.54879 35912 ft 413 kts 270°
2026-04-27 10:41 37.41144 126.47654 35911 ft 413 kts 270°
2026-04-27 10:41 37.41097 126.40421 35913 ft 414 kts 270°
2026-04-27 10:42 37.41047 126.33182 35910 ft 414 kts 270°
2026-04-27 10:42 37.40991 126.25941 35904 ft 414 kts 270°
2026-04-27 10:43 37.40929 126.18687 35894 ft 415 kts 270°
2026-04-27 10:43 37.40863 126.11413 35886 ft 416 kts 270°
2026-04-27 10:44 37.40792 126.04135 35882 ft 416 kts 270°
2026-04-27 10:44 37.40717 125.96851 35890 ft 417 kts 270°
2026-04-27 10:45 37.40637 125.89562 35888 ft 417 kts 269°
2026-04-27 10:45 37.40553 125.82256 35891 ft 418 kts 269°
2026-04-27 10:46 37.40464 125.74955 35891 ft 418 kts 269°
2026-04-27 10:46 37.40370 125.67631 35900 ft 419 kts 269°
2026-04-27 10:47 37.40276 125.60308 35895 ft 419 kts 269°
2026-04-27 10:47 37.40172 125.52972 35885 ft 420 kts 269°
2026-04-27 10:48 37.40062 125.45678 35891 ft 421 kts 269°
2026-04-27 10:48 37.39948 125.38310 35882 ft 421 kts 269°
2026-04-27 10:49 37.39830 125.30945 35880 ft 422 kts 269°
2026-04-27 10:49 37.39708 125.23566 35888 ft 423 kts 269°
2026-04-27 10:50 37.39579 125.16175 35891 ft 423 kts 269°
2026-04-27 10:50 37.39451 125.08766 35885 ft 424 kts 269°
2026-04-27 10:51 37.39318 125.01349 35877 ft 424 kts 269°
2026-04-27 10:51 37.39179 124.93927 35882 ft 425 kts 269°
2026-04-27 10:52 37.38717 124.86519 35875 ft 426 kts 261°
2026-04-27 10:52 37.36831 124.79443 35880 ft 432 kts 246°
2026-04-27 10:53 37.32175 124.69670 35873 ft 436 kts 242°
2026-04-27 10:54 37.28911 124.63227 35881 ft 437 kts 242°
2026-04-27 10:54 37.25664 124.56778 35884 ft 437 kts 242°
2026-04-27 10:55 37.22454 124.50353 35884 ft 438 kts 242°
2026-04-27 10:55 37.19496 124.43711 35886 ft 434 kts 250°
2026-04-27 10:56 37.18071 124.37679 35884 ft 430 kts 262°
2026-04-27 10:56 37.17580 124.30226 35886 ft 429 kts 268°
2026-04-27 10:57 37.17367 124.22733 35886 ft 430 kts 269°
2026-04-27 10:57 37.17169 124.15293 35889 ft 430 kts 269°
2026-04-27 10:58 37.16932 124.07740 35888 ft 431 kts 268°
2026-04-27 10:58 37.15946 124.00420 35983 ft 430 kts 255°
2026-04-27 10:59 37.13416 123.93621 35997 ft 434 kts 243°
2026-04-27 10:59 37.10163 123.87218 35996 ft 436 kts 241°
2026-04-27 11:00 37.05162 123.77678 36004 ft 437 kts 241°
2026-04-27 11:00 37.01840 123.71295 36002 ft 438 kts 241°
2026-04-27 11:01 36.98525 123.64909 36001 ft 438 kts 241°
2026-04-27 11:01 36.95208 123.58528 36018 ft 439 kts 241°
2026-04-27 11:02 36.91870 123.52118 36016 ft 439 kts 241°
2026-04-27 11:02 36.88533 123.45726 36010 ft 439 kts 241°
2026-04-27 11:03 36.85905 123.38925 36016 ft 432 kts 256°
2026-04-27 11:03 36.84949 123.31608 36014 ft 426 kts 271°
2026-04-27 11:04 36.85786 123.24330 36021 ft 425 kts 285°
2026-04-27 11:04 36.87445 123.17293 36017 ft 425 kts 286°
2026-04-27 11:05 36.89201 123.10242 36018 ft 424 kts 286°
2026-04-27 11:05 36.90926 123.03199 36018 ft 423 kts 286°
2026-04-27 11:06 36.92618 122.96164 36024 ft 423 kts 286°
2026-04-27 11:06 36.94300 122.89117 36027 ft 422 kts 286°
2026-04-27 11:07 36.95972 122.82091 36026 ft 421 kts 286°
2026-04-27 11:07 36.97638 122.75074 36021 ft 420 kts 286°
2026-04-27 11:08 36.99298 122.68064 36024 ft 420 kts 286°
2026-04-27 11:08 37.00950 122.61066 36023 ft 419 kts 286°
2026-04-27 11:09 37.02593 122.54088 36030 ft 418 kts 286°
2026-04-27 11:09 37.04231 122.47113 36033 ft 417 kts 286°
2026-04-27 11:10 37.05882 122.40169 36031 ft 416 kts 288°
2026-04-27 11:10 37.08395 122.33655 36042 ft 418 kts 301°
2026-04-27 11:11 37.12306 122.28227 36041 ft 425 kts 316°
2026-04-27 11:11 37.16582 122.23194 36048 ft 419 kts 307°
2026-04-27 11:12 37.19693 122.17109 36050 ft 413 kts 292°
2026-04-27 11:12 37.21669 122.10370 36055 ft 412 kts 288°
2026-04-27 11:13 37.23409 122.03576 36051 ft 411 kts 287°
2026-04-27 11:13 37.25134 121.96742 36060 ft 410 kts 287°
2026-04-27 11:14 37.26872 121.89937 36053 ft 409 kts 287°
2026-04-27 11:14 37.28620 121.83136 36063 ft 408 kts 287°
2026-04-27 11:15 37.30363 121.76347 36061 ft 408 kts 287°
2026-04-27 11:15 37.32097 121.69570 36069 ft 407 kts 287°
2026-04-27 11:16 37.33821 121.62810 36072 ft 406 kts 287°
2026-04-27 11:16 37.35538 121.56059 36079 ft 406 kts 287°
2026-04-27 11:17 37.37253 121.49296 36084 ft 405 kts 287°
2026-04-27 11:17 37.38957 121.42562 36090 ft 403 kts 287°
2026-04-27 11:18 37.40651 121.35848 36085 ft 402 kts 287°
2026-04-27 11:18 37.42338 121.29144 36091 ft 401 kts 287°
2026-04-27 11:19 37.44012 121.22474 36088 ft 400 kts 287°
2026-04-27 11:19 37.45698 121.15808 36096 ft 399 kts 289°
2026-04-27 11:20 37.47724 121.09318 36095 ft 398 kts 292°
2026-04-27 11:20 37.49876 121.02904 36101 ft 397 kts 291°
2026-04-27 11:21 37.51975 120.96477 36103 ft 396 kts 291°
2026-04-27 11:21 37.52995 120.93319 36101 ft 383 kts 288°
2026-04-27 11:21 37.53975 120.90252 36106 ft 372 kts 288°
2026-04-27 11:22 37.55849 120.84311 36111 ft 365 kts 288°
2026-04-27 11:22 37.57712 120.78370 36117 ft 365 kts 288°
2026-04-27 11:23 37.59596 120.72427 36119 ft 365 kts 289°
2026-04-27 11:23 37.61543 120.66522 36118 ft 365 kts 289°
2026-04-27 11:24 37.63499 120.60614 36124 ft 365 kts 289°
2026-04-27 11:24 37.65506 120.54737 36130 ft 366 kts 292°
2026-04-27 11:25 37.67969 120.49084 36135 ft 368 kts 294°
2026-04-27 11:25 37.70519 120.43487 36129 ft 368 kts 294°
2026-04-27 11:26 37.73087 120.37884 36136 ft 368 kts 294°
2026-04-27 11:26 37.75640 120.32287 36137 ft 368 kts 294°
2026-04-27 11:27 37.78188 120.26677 36138 ft 368 kts 294°
2026-04-27 11:27 37.80728 120.21072 36141 ft 368 kts 294°
2026-04-27 11:28 37.83270 120.15454 36142 ft 368 kts 294°
2026-04-27 11:28 37.85791 120.09872 36144 ft 368 kts 294°
2026-04-27 11:29 37.88343 120.04213 36144 ft 368 kts 294°
2026-04-27 11:29 37.90873 119.98592 36150 ft 368 kts 294°
2026-04-27 11:30 37.93387 119.92996 36148 ft 368 kts 294°
2026-04-27 11:30 37.95912 119.87367 36151 ft 368 kts 294°
2026-04-27 11:31 37.98437 119.81729 36151 ft 368 kts 294°
2026-04-27 11:31 38.00956 119.76092 36157 ft 368 kts 294°
2026-04-27 11:32 38.03475 119.70449 36157 ft 368 kts 294°
2026-04-27 11:32 38.05989 119.64802 36160 ft 368 kts 294°
2026-04-27 11:33 38.08504 119.59147 36160 ft 368 kts 294°
2026-04-27 11:33 38.10963 119.53456 36162 ft 366 kts 290°
2026-04-27 11:34 38.12994 119.47551 36166 ft 365 kts 288°
2026-04-27 11:34 38.14941 119.41596 36169 ft 365 kts 288°
2026-04-27 11:35 38.16870 119.35636 36167 ft 365 kts 288°
2026-04-27 11:35 38.18789 119.29709 36167 ft 365 kts 288°
2026-04-27 11:36 38.20724 119.23737 36169 ft 365 kts 288°
2026-04-27 11:36 38.22657 119.17760 36169 ft 366 kts 288°
2026-04-27 11:37 38.24589 119.11777 36171 ft 366 kts 288°
2026-04-27 11:37 38.26518 119.05787 36173 ft 366 kts 288°
2026-04-27 11:38 38.28444 118.99794 36174 ft 366 kts 288°
2026-04-27 11:38 38.30369 118.93793 36177 ft 366 kts 288°
2026-04-27 11:39 38.32293 118.87779 36176 ft 367 kts 288°
2026-04-27 11:39 38.34214 118.81766 36182 ft 367 kts 288°
2026-04-27 11:40 38.36134 118.75742 36181 ft 367 kts 288°
2026-04-27 11:40 38.38065 118.69709 36182 ft 367 kts 288°
2026-04-27 11:41 38.39990 118.63675 36181 ft 368 kts 288°
2026-04-27 11:41 38.41916 118.57626 36184 ft 368 kts 288°
2026-04-27 11:42 38.43844 118.51562 36182 ft 369 kts 288°
2026-04-27 11:42 38.45768 118.45496 36184 ft 369 kts 288°
2026-04-27 11:43 38.47693 118.39420 36183 ft 370 kts 288°
2026-04-27 11:43 38.49619 118.33330 36187 ft 370 kts 288°
2026-04-27 11:44 38.51537 118.27224 36186 ft 371 kts 288°
2026-04-27 11:44 38.53454 118.21114 36186 ft 371 kts 288°
2026-04-27 11:45 38.55050 118.16023 36189 ft 372 kts 288°
2026-04-27 11:45 38.57280 118.08896 36189 ft 372 kts 288°
2026-04-27 11:46 38.59168 118.03881 36190 ft 377 kts 296°
2026-04-27 11:46 38.62426 117.98516 36186 ft 387 kts 304°
2026-04-27 11:47 38.66130 117.93509 36186 ft 389 kts 306°
2026-04-27 11:47 38.69899 117.88537 36190 ft 389 kts 306°
2026-04-27 11:48 38.73662 117.83542 36187 ft 389 kts 306°
2026-04-27 11:48 38.77407 117.78531 36190 ft 389 kts 306°
2026-04-27 11:49 38.81153 117.73500 36193 ft 390 kts 306°
2026-04-27 11:49 38.84868 117.68502 36189 ft 390 kts 306°
2026-04-27 11:50 38.88639 117.63422 36187 ft 391 kts 306°
2026-04-27 11:50 38.92370 117.58388 36186 ft 392 kts 306°
2026-04-27 11:51 38.96126 117.53314 36185 ft 392 kts 306°
2026-04-27 11:52 39.01773 117.45669 36179 ft 394 kts 306°
2026-04-27 11:52 39.05364 117.40400 36169 ft 388 kts 299°
2026-04-27 11:53 39.07905 117.34374 36185 ft 380 kts 287°
2026-04-27 11:53 39.09203 117.27811 36176 ft 378 kts 280°
2026-04-27 11:54 39.10102 117.21134 36177 ft 379 kts 279°
2026-04-27 11:54 39.10956 117.14441 36172 ft 379 kts 279°
2026-04-27 11:55 39.11824 117.07755 36170 ft 379 kts 279°
2026-04-27 11:55 39.12704 117.01071 36163 ft 379 kts 279°
2026-04-27 11:56 39.13641 116.94388 36157 ft 379 kts 281°
2026-04-27 11:56 39.14712 116.87737 36153 ft 379 kts 281°
2026-04-27 11:57 39.15788 116.81080 36149 ft 380 kts 281°
2026-04-27 11:57 39.16839 116.74414 36148 ft 380 kts 281°
2026-04-27 11:58 39.17876 116.67732 36146 ft 380 kts 281°
2026-04-27 11:58 39.18787 116.61015 36145 ft 381 kts 276°
2026-04-27 11:59 39.18646 116.54245 36145 ft 384 kts 264°
2026-04-27 11:59 39.17350 116.47514 36142 ft 388 kts 259°
2026-04-27 12:00 39.15791 116.40831 36138 ft 389 kts 258°
2026-04-27 12:00 39.14212 116.34168 36140 ft 388 kts 258°
2026-04-27 12:01 39.12658 116.27533 36138 ft 387 kts 258°
2026-04-27 12:01 39.11109 116.20881 36149 ft 386 kts 258°
2026-04-27 12:02 39.09567 116.14269 36130 ft 385 kts 258°
2026-04-27 12:02 39.08025 116.07670 36136 ft 385 kts 258°
2026-04-27 12:03 39.06482 116.01090 36131 ft 384 kts 258°
2026-04-27 12:03 39.04936 115.94522 36124 ft 383 kts 258°
2026-04-27 12:04 39.03389 115.87963 36126 ft 383 kts 258°
2026-04-27 12:04 39.01836 115.81401 36125 ft 383 kts 258°
2026-04-27 12:05 39.00281 115.74850 36119 ft 383 kts 258°
2026-04-27 12:05 38.98725 115.68311 36118 ft 382 kts 258°
2026-04-27 12:06 38.97166 115.61775 36122 ft 383 kts 258°
2026-04-27 12:06 38.95617 115.55299 36124 ft 383 kts 258°
2026-04-27 12:07 38.93826 115.48760 36393 ft 388 kts 253°
2026-04-27 12:07 38.92754 115.45569 36561 ft 389 kts 253°
2026-04-27 12:07 38.91652 115.42384 36757 ft 390 kts 252°
2026-04-27 12:07 38.90551 115.39248 36896 ft 391 kts 252°
2026-04-27 12:08 38.89413 115.36025 37065 ft 391 kts 252°
2026-04-27 12:08 38.88303 115.32885 37233 ft 392 kts 252°
2026-04-27 12:08 38.87179 115.29703 37403 ft 392 kts 252°
2026-04-27 12:08 38.86056 115.26521 37569 ft 392 kts 252°
2026-04-27 12:09 38.84931 115.23333 37723 ft 392 kts 252°
2026-04-27 12:09 38.83807 115.20144 37871 ft 393 kts 252°
2026-04-27 12:09 38.82680 115.16950 38017 ft 393 kts 252°
2026-04-27 12:10 38.80416 115.10538 38126 ft 397 kts 252°
2026-04-27 12:10 38.78127 115.04073 38119 ft 399 kts 252°
2026-04-27 12:11 38.75829 114.97612 38120 ft 398 kts 252°
2026-04-27 12:11 38.73541 114.91169 38117 ft 397 kts 252°
2026-04-27 12:12 38.71254 114.84748 38116 ft 396 kts 252°
2026-04-27 12:12 38.68964 114.78330 38119 ft 396 kts 252°
2026-04-27 12:13 38.66675 114.71928 38119 ft 395 kts 252°
2026-04-27 12:13 38.64385 114.65538 38120 ft 395 kts 252°
2026-04-27 12:14 38.62094 114.59159 38112 ft 395 kts 252°
2026-04-27 12:14 38.59783 114.52791 38128 ft 394 kts 252°
2026-04-27 12:15 38.57475 114.46440 38118 ft 394 kts 252°
2026-04-27 12:15 38.55176 114.40088 38119 ft 393 kts 252°
2026-04-27 12:16 38.52881 114.33762 38114 ft 393 kts 252°
2026-04-27 12:16 38.50582 114.27440 38117 ft 392 kts 252°
2026-04-27 12:17 38.48290 114.21156 38118 ft 391 kts 252°
2026-04-27 12:17 38.45986 114.14850 38125 ft 390 kts 252°
2026-04-27 12:18 38.43698 114.08603 38130 ft 388 kts 253°
2026-04-27 12:18 38.41415 114.02387 38131 ft 385 kts 252°
2026-04-27 12:19 38.39141 113.96198 38132 ft 385 kts 253°
2026-04-27 12:19 38.36878 113.90028 38140 ft 384 kts 253°
2026-04-27 12:20 38.34624 113.83904 38139 ft 384 kts 253°
2026-04-27 12:20 38.32338 113.77761 38133 ft 383 kts 252°
2026-04-27 12:21 38.30029 113.71646 38150 ft 383 kts 252°
2026-04-27 12:21 38.27717 113.65541 38146 ft 382 kts 252°
2026-04-27 12:22 38.25413 113.59465 38146 ft 380 kts 253°
2026-04-27 12:22 38.23124 113.53424 38143 ft 378 kts 253°
2026-04-27 12:23 38.20840 113.47400 38156 ft 378 kts 253°
2026-04-27 12:23 38.18555 113.41394 38157 ft 377 kts 253°
2026-04-27 12:24 38.16267 113.35392 38163 ft 376 kts 253°
2026-04-27 12:24 38.14026 113.29412 38158 ft 373 kts 253°
2026-04-27 12:25 38.11814 113.23451 38165 ft 373 kts 254°
2026-04-27 12:25 38.09598 113.17503 38181 ft 372 kts 253°
2026-04-27 12:26 38.07377 113.11567 38176 ft 373 kts 253°
2026-04-27 12:26 38.05149 113.05622 38171 ft 373 kts 253°
2026-04-27 12:27 38.02915 112.99671 38168 ft 374 kts 253°
2026-04-27 12:27 38.00676 112.93728 38173 ft 375 kts 253°
2026-04-27 12:28 37.98430 112.87783 38159 ft 374 kts 253°
2026-04-27 12:28 37.96182 112.81844 38163 ft 373 kts 253°
2026-04-27 12:29 37.93938 112.75924 38157 ft 373 kts 253°
2026-04-27 12:29 37.91697 112.70014 38152 ft 372 kts 253°
2026-04-27 12:30 37.89452 112.64112 38147 ft 372 kts 253°
2026-04-27 12:30 37.87215 112.58243 38149 ft 373 kts 253°
2026-04-27 12:31 37.84816 112.52395 38146 ft 376 kts 251°
2026-04-27 12:31 37.82303 112.46582 38153 ft 377 kts 251°
2026-04-27 12:32 37.79885 112.40725 38158 ft 372 kts 256°
2026-04-27 12:32 37.78382 112.34585 38158 ft 361 kts 266°
2026-04-27 12:33 37.78066 112.29346 38162 ft 356 kts 275°
2026-04-27 12:33 37.78533 112.23137 38171 ft 355 kts 278°
2026-04-27 12:34 37.79159 112.16957 38166 ft 354 kts 278°
2026-04-27 12:34 37.79789 112.10777 38182 ft 355 kts 278°
2026-04-27 12:35 37.80385 112.04588 38199 ft 355 kts 278°
2026-04-27 12:35 37.80968 111.98393 38194 ft 354 kts 278°
2026-04-27 12:36 37.81555 111.92200 38195 ft 355 kts 278°
2026-04-27 12:36 37.82143 111.85968 38201 ft 358 kts 277°
2026-04-27 12:37 37.82727 111.79718 38204 ft 358 kts 277°
2026-04-27 12:37 37.83308 111.73454 38208 ft 359 kts 277°
2026-04-27 12:38 37.83926 111.67188 38222 ft 359 kts 278°
2026-04-27 12:38 37.84621 111.60986 38215 ft 358 kts 278°
2026-04-27 12:39 37.85318 111.54778 38220 ft 355 kts 278°
2026-04-27 12:39 37.85996 111.48576 38210 ft 356 kts 278°
2026-04-27 12:40 37.86574 111.42362 38220 ft 355 kts 276°
2026-04-27 12:40 37.87082 111.36138 38224 ft 356 kts 276°
2026-04-27 12:41 37.87606 111.29896 38218 ft 358 kts 277°
2026-04-27 12:41 37.88145 111.23627 38212 ft 358 kts 277°
2026-04-27 12:42 37.88687 111.17349 38219 ft 360 kts 277°
2026-04-27 12:42 37.89227 111.11060 38209 ft 359 kts 277°
2026-04-27 12:43 37.89764 111.04758 38206 ft 360 kts 277°
2026-04-27 12:43 37.90297 110.98458 38203 ft 360 kts 276°
2026-04-27 12:44 37.90827 110.92146 38201 ft 361 kts 276°
2026-04-27 12:44 37.91357 110.85825 38198 ft 361 kts 276°
2026-04-27 12:45 37.91880 110.79515 38197 ft 361 kts 276°
2026-04-27 12:45 37.92397 110.73230 38194 ft 361 kts 276°
2026-04-27 12:46 37.92915 110.66902 38192 ft 361 kts 276°
2026-04-27 12:46 37.93497 110.60581 38187 ft 361 kts 277°
2026-04-27 12:47 37.94162 110.54269 38187 ft 362 kts 277°
2026-04-27 12:47 37.94825 110.47909 38186 ft 362 kts 277°
2026-04-27 12:48 37.95463 110.41619 38184 ft 362 kts 277°
2026-04-27 12:48 37.96092 110.35293 38183 ft 362 kts 277°
2026-04-27 12:49 37.96718 110.28953 38186 ft 363 kts 277°
2026-04-27 12:49 37.97344 110.22604 38182 ft 363 kts 277°
2026-04-27 12:50 37.97968 110.16250 38187 ft 363 kts 277°
2026-04-27 12:50 37.98586 110.09897 38184 ft 363 kts 277°
2026-04-27 12:51 37.99201 110.03545 38183 ft 363 kts 277°
2026-04-27 12:51 37.99812 109.97204 38181 ft 362 kts 277°
2026-04-27 12:52 38.00418 109.90871 38182 ft 362 kts 277°
2026-04-27 12:52 38.01021 109.84534 38181 ft 362 kts 276°
2026-04-27 12:53 38.01921 109.75010 38181 ft 363 kts 276°
2026-04-27 12:53 38.02518 109.68658 38185 ft 363 kts 276°
2026-04-27 12:54 38.03111 109.62293 38189 ft 363 kts 276°
2026-04-27 12:54 38.03702 109.55924 38182 ft 363 kts 276°
2026-04-27 12:55 38.04290 109.49550 38182 ft 364 kts 276°
2026-04-27 12:55 38.04872 109.43180 38186 ft 364 kts 276°
2026-04-27 12:56 38.05453 109.36808 38184 ft 364 kts 276°
2026-04-27 12:56 38.06032 109.30419 38185 ft 364 kts 276°
2026-04-27 12:57 38.06610 109.24036 38187 ft 364 kts 276°
2026-04-27 12:57 38.07182 109.17653 38188 ft 364 kts 276°
2026-04-27 12:58 38.07748 109.11269 38187 ft 364 kts 276°
2026-04-27 12:58 38.08312 109.04871 38188 ft 364 kts 276°
2026-04-27 12:59 38.08869 108.98527 38185 ft 364 kts 276°
2026-04-27 12:59 38.09428 108.92133 38188 ft 364 kts 276°
2026-04-27 13:00 38.09982 108.85738 38185 ft 364 kts 276°
2026-04-27 13:00 38.10533 108.79341 38189 ft 364 kts 276°
2026-04-27 13:01 38.11082 108.72944 38192 ft 365 kts 276°
2026-04-27 13:01 38.11627 108.66536 38196 ft 365 kts 276°
2026-04-27 13:02 38.12169 108.60128 38191 ft 365 kts 276°
2026-04-27 13:02 38.12707 108.53724 38200 ft 365 kts 276°
2026-04-27 13:03 38.13242 108.47306 38188 ft 365 kts 276°
2026-04-27 13:03 38.13774 108.40889 38195 ft 366 kts 276°
2026-04-27 13:04 38.14303 108.34464 38198 ft 366 kts 276°
2026-04-27 13:04 38.14843 108.28031 38188 ft 366 kts 276°
2026-04-27 13:05 38.15479 108.21608 38185 ft 366 kts 277°
2026-04-27 13:05 38.16137 108.15190 38190 ft 367 kts 276°
2026-04-27 13:06 38.16778 108.08764 38188 ft 367 kts 276°
2026-04-27 13:06 38.17407 108.02335 38192 ft 367 kts 276°
2026-04-27 13:07 38.18027 107.95935 38190 ft 367 kts 276°
2026-04-27 13:07 38.18647 107.89497 38189 ft 367 kts 276°
2026-04-27 13:08 38.19264 107.83061 38188 ft 367 kts 276°
2026-04-27 13:08 38.19878 107.76618 38187 ft 367 kts 276°
2026-04-27 13:09 38.20534 107.70181 38192 ft 367 kts 277°
2026-04-27 13:09 38.21288 107.63768 38194 ft 367 kts 277°
2026-04-27 13:10 38.22044 107.57344 38191 ft 367 kts 277°
2026-04-27 13:10 38.22781 107.50912 38185 ft 367 kts 277°
2026-04-27 13:11 38.23506 107.44480 38182 ft 368 kts 277°
2026-04-27 13:11 38.24228 107.38037 38191 ft 368 kts 277°
2026-04-27 13:12 38.24947 107.31589 38187 ft 368 kts 277°
2026-04-27 13:12 38.25663 107.25142 38193 ft 368 kts 277°
2026-04-27 13:13 38.26376 107.18689 38188 ft 368 kts 277°
2026-04-27 13:13 38.27081 107.12269 38195 ft 369 kts 277°
2026-04-27 13:14 38.27788 107.05805 38189 ft 369 kts 277°
2026-04-27 13:14 38.28491 106.99344 38187 ft 369 kts 277°
2026-04-27 13:15 38.29192 106.92867 38188 ft 369 kts 277°
2026-04-27 13:15 38.29889 106.86383 38181 ft 369 kts 277°
2026-04-27 13:16 38.30583 106.79911 38183 ft 370 kts 276°
2026-04-27 13:16 38.31273 106.73422 38179 ft 370 kts 276°
2026-04-27 13:17 38.31961 106.66928 38178 ft 370 kts 276°
2026-04-27 13:17 38.32646 106.60425 38176 ft 370 kts 276°
2026-04-27 13:18 38.33327 106.53924 38173 ft 371 kts 276°
2026-04-27 13:18 38.34006 106.47411 38172 ft 371 kts 276°
2026-04-27 13:19 38.34877 106.40927 38169 ft 373 kts 282°
2026-04-27 13:19 38.36541 106.34657 38171 ft 375 kts 286°
2026-04-27 13:20 38.38074 106.29492 38168 ft 375 kts 287°
2026-04-27 13:20 38.39942 106.23294 38172 ft 374 kts 287°
2026-04-27 13:21 38.41796 106.17098 38181 ft 374 kts 287°
2026-04-27 13:21 38.43634 106.10906 38178 ft 373 kts 287°
2026-04-27 13:22 38.45480 106.04714 38179 ft 373 kts 287°
2026-04-27 13:22 38.47320 105.98523 38190 ft 373 kts 287°
2026-04-27 13:23 38.49156 105.92331 38185 ft 373 kts 287°
2026-04-27 13:23 38.50986 105.86139 38185 ft 373 kts 287°
2026-04-27 13:24 38.52814 105.79945 38200 ft 373 kts 287°
2026-04-27 13:24 38.54637 105.73751 38192 ft 372 kts 287°
2026-04-27 13:25 38.56457 105.67567 38196 ft 372 kts 287°
2026-04-27 13:25 38.58259 105.61425 38185 ft 372 kts 286°
2026-04-27 13:26 38.60069 105.55240 38186 ft 371 kts 286°
2026-04-27 13:26 38.61875 105.49054 38182 ft 371 kts 286°
2026-04-27 13:27 38.63675 105.42872 38181 ft 371 kts 286°
2026-04-27 13:27 38.65471 105.36691 38178 ft 371 kts 286°
2026-04-27 13:28 38.67263 105.30509 38178 ft 370 kts 286°
2026-04-27 13:28 38.69049 105.24331 38178 ft 371 kts 286°
2026-04-27 13:29 38.70837 105.18136 38177 ft 371 kts 286°
2026-04-27 13:29 38.72621 105.11938 38178 ft 371 kts 286°
2026-04-27 13:30 38.74143 105.05657 38180 ft 369 kts 282°
2026-04-27 13:30 38.75448 104.99291 38185 ft 369 kts 281°
2026-04-27 13:31 38.76773 104.92937 38184 ft 370 kts 284°
2026-04-27 13:31 38.78591 104.86747 38185 ft 372 kts 287°
2026-04-27 13:32 38.80520 104.80602 38186 ft 372 kts 287°
2026-04-27 13:32 38.82471 104.74445 38183 ft 372 kts 287°
2026-04-27 13:33 38.84411 104.68293 38182 ft 372 kts 287°
2026-04-27 13:33 38.86345 104.62125 38184 ft 373 kts 287°
2026-04-27 13:34 38.88273 104.55957 38179 ft 372 kts 287°
2026-04-27 13:34 38.90200 104.49782 38178 ft 372 kts 287°
2026-04-27 13:35 38.92122 104.43606 38173 ft 373 kts 287°
2026-04-27 13:35 38.94043 104.37424 38172 ft 373 kts 287°
2026-04-27 13:36 38.95963 104.31229 38173 ft 373 kts 287°
2026-04-27 13:36 38.97879 104.25032 38171 ft 373 kts 287°
2026-04-27 13:37 38.99782 104.18862 38169 ft 374 kts 286°
2026-04-27 13:37 39.01695 104.12644 38169 ft 374 kts 286°
2026-04-27 13:38 39.03609 104.06413 38165 ft 375 kts 286°
2026-04-27 13:38 39.05519 104.00180 38164 ft 375 kts 286°
2026-04-27 13:39 39.07430 103.93931 38163 ft 375 kts 286°
2026-04-27 13:39 39.09338 103.87677 38167 ft 376 kts 286°
2026-04-27 13:40 39.11245 103.81407 38166 ft 376 kts 286°
2026-04-27 13:40 39.13152 103.75127 38161 ft 377 kts 286°
2026-04-27 13:41 39.15060 103.68827 38162 ft 378 kts 286°
2026-04-27 13:41 39.16970 103.62510 38163 ft 379 kts 286°
2026-04-27 13:42 39.18880 103.56176 38158 ft 380 kts 286°
2026-04-27 13:42 39.20793 103.49815 38155 ft 381 kts 286°
2026-04-27 13:43 39.22707 103.43438 38158 ft 382 kts 286°
2026-04-27 13:43 39.24622 103.37046 38157 ft 383 kts 286°
2026-04-27 13:44 39.26528 103.30664 38157 ft 384 kts 286°
2026-04-27 13:44 39.28445 103.24228 38156 ft 385 kts 286°
2026-04-27 13:45 39.30366 103.17766 38157 ft 386 kts 286°
2026-04-27 13:45 39.32287 103.11287 38158 ft 387 kts 286°
2026-04-27 13:46 39.34212 103.04778 38157 ft 388 kts 286°
2026-04-27 13:46 39.36139 102.98251 38157 ft 390 kts 286°
2026-04-27 13:47 39.38059 102.91686 38153 ft 391 kts 285°
2026-04-27 13:47 39.39972 102.85089 38158 ft 392 kts 285°
2026-04-27 13:48 39.41817 102.78454 38158 ft 391 kts 282°
2026-04-27 13:48 39.42935 102.71603 38159 ft 390 kts 277°
2026-04-27 13:49 39.43829 102.64677 38159 ft 390 kts 276°
2026-04-27 13:49 39.44625 102.57730 38155 ft 391 kts 275°
2026-04-27 13:50 39.45399 102.50768 38161 ft 391 kts 276°
2026-04-27 13:50 39.46188 102.43800 38156 ft 392 kts 276°
2026-04-27 13:51 39.46988 102.36797 38162 ft 393 kts 276°
2026-04-27 13:51 39.47788 102.29787 38163 ft 394 kts 276°
2026-04-27 13:52 39.48584 102.22757 38167 ft 395 kts 276°
2026-04-27 13:52 39.49379 102.15707 38173 ft 396 kts 275°
2026-04-27 13:53 39.50564 102.05104 38178 ft 398 kts 275°
2026-04-27 13:54 39.51352 101.98004 38179 ft 399 kts 275°
2026-04-27 13:54 39.52136 101.90895 38186 ft 400 kts 275°
2026-04-27 13:55 39.52920 101.83751 38191 ft 400 kts 275°
2026-04-27 13:55 39.53700 101.76606 38195 ft 401 kts 275°
2026-04-27 13:56 39.54478 101.69433 38200 ft 402 kts 275°
2026-04-27 13:56 39.55252 101.62248 38208 ft 403 kts 275°
2026-04-27 13:57 39.56025 101.55039 38210 ft 404 kts 275°
2026-04-27 13:57 39.56795 101.47812 38214 ft 405 kts 275°
2026-04-27 13:58 39.57561 101.40576 38222 ft 406 kts 275°
2026-04-27 13:58 39.58326 101.33313 38231 ft 407 kts 275°
2026-04-27 13:59 39.59087 101.26035 38235 ft 408 kts 275°
2026-04-27 13:59 39.59846 101.18738 38238 ft 409 kts 275°
2026-04-27 14:00 39.60602 101.11414 38248 ft 411 kts 275°
2026-04-27 14:00 39.61353 101.04104 38250 ft 412 kts 275°
2026-04-27 14:01 39.62110 100.96683 38259 ft 413 kts 275°
2026-04-27 14:01 39.62856 100.89320 38256 ft 415 kts 275°
2026-04-27 14:02 39.63604 100.81893 38260 ft 416 kts 275°
2026-04-27 14:02 39.64349 100.74446 38258 ft 417 kts 275°
2026-04-27 14:03 39.65092 100.66969 38260 ft 418 kts 275°
2026-04-27 14:03 39.65831 100.59480 38249 ft 419 kts 275°
2026-04-27 14:04 39.66568 100.51957 38252 ft 421 kts 275°
2026-04-27 14:04 39.67303 100.44419 38248 ft 422 kts 275°
2026-04-27 14:05 39.68035 100.36856 38249 ft 423 kts 275°
2026-04-27 14:05 39.68763 100.29275 38249 ft 424 kts 275°
2026-04-27 14:06 39.69486 100.21686 38247 ft 424 kts 275°
2026-04-27 14:06 39.70207 100.14073 38247 ft 425 kts 275°
2026-04-27 14:07 39.70925 100.06443 38247 ft 426 kts 275°
2026-04-27 14:07 39.71518 100.00085 38247 ft 427 kts 275°
2026-04-27 14:08 39.72229 99.92424 38247 ft 428 kts 275°
2026-04-27 14:08 39.72936 99.84747 38245 ft 429 kts 275°
2026-04-27 14:09 39.73640 99.77043 38241 ft 429 kts 275°
2026-04-27 14:09 39.74341 99.69330 38244 ft 430 kts 275°
2026-04-27 14:10 39.75037 99.61611 38238 ft 431 kts 275°
2026-04-27 14:10 39.75729 99.53867 38240 ft 432 kts 275°
2026-04-27 14:11 39.76416 99.46111 38239 ft 432 kts 275°
2026-04-27 14:11 39.77099 99.38355 38238 ft 433 kts 275°
2026-04-27 14:12 39.77779 99.30566 38234 ft 433 kts 275°
2026-04-27 14:12 39.78454 99.22782 38233 ft 434 kts 275°
2026-04-27 14:13 39.79125 99.14980 38235 ft 434 kts 275°
2026-04-27 14:13 39.79791 99.07166 38230 ft 435 kts 275°
2026-04-27 14:14 39.80448 98.99402 38228 ft 435 kts 275°
2026-04-27 14:14 39.81080 98.91571 38232 ft 436 kts 274°
2026-04-27 14:15 39.81573 98.83721 38230 ft 436 kts 274°
2026-04-27 14:15 39.82040 98.75852 38230 ft 436 kts 274°
2026-04-27 14:16 39.82523 98.67975 38233 ft 437 kts 274°
2026-04-27 14:16 39.83014 98.60085 38235 ft 438 kts 274°
2026-04-27 14:17 39.83502 98.52196 38233 ft 438 kts 274°
2026-04-27 14:17 39.83986 98.44274 38241 ft 439 kts 274°
2026-04-27 14:18 39.84340 98.36346 38241 ft 440 kts 268°
2026-04-27 14:18 39.83742 98.28432 38245 ft 440 kts 263°
2026-04-27 14:19 39.82888 98.20552 38251 ft 440 kts 262°
2026-04-27 14:19 39.81992 98.12665 38264 ft 440 kts 262°
2026-04-27 14:20 39.81103 98.04786 38269 ft 441 kts 263°
2026-04-27 14:20 39.80219 97.96900 38278 ft 441 kts 263°
2026-04-27 14:21 39.79334 97.89016 38288 ft 441 kts 263°
2026-04-27 14:21 39.78440 97.81115 38291 ft 441 kts 263°
2026-04-27 14:22 39.77549 97.73290 38293 ft 441 kts 263°
2026-04-27 14:22 39.76645 97.65403 38301 ft 441 kts 263°
2026-04-27 14:23 39.75735 97.57508 38303 ft 441 kts 263°
2026-04-27 14:23 39.74798 97.49630 38313 ft 442 kts 262°
2026-04-27 14:24 39.73749 97.41787 38318 ft 442 kts 262°
2026-04-27 14:24 39.72672 97.33889 38324 ft 443 kts 262°
2026-04-27 14:25 39.71614 97.26024 38321 ft 442 kts 262°
2026-04-27 14:25 39.70577 97.18142 38327 ft 443 kts 262°
2026-04-27 14:26 39.69540 97.10269 38330 ft 442 kts 262°
2026-04-27 14:26 39.68497 97.02393 38329 ft 443 kts 262°
2026-04-27 14:27 39.67445 96.94501 38331 ft 444 kts 262°
2026-04-27 14:27 39.66385 96.86607 38335 ft 444 kts 262°
2026-04-27 14:28 39.65322 96.78716 38336 ft 444 kts 262°
2026-04-27 14:28 39.64252 96.70830 38339 ft 444 kts 262°
2026-04-27 14:29 39.63175 96.62933 38341 ft 445 kts 262°
2026-04-27 14:29 39.62138 96.55075 38348 ft 444 kts 263°
2026-04-27 14:30 39.61139 96.47168 38349 ft 444 kts 263°
2026-04-27 14:30 39.60133 96.39266 38350 ft 444 kts 263°
2026-04-27 14:31 39.59114 96.31362 38352 ft 445 kts 263°
2026-04-27 14:31 39.58082 96.23453 38345 ft 445 kts 263°
2026-04-27 14:32 39.57045 96.15546 38347 ft 445 kts 263°
2026-04-27 14:32 39.56015 96.07655 38343 ft 444 kts 264°
2026-04-27 14:33 39.55131 95.99729 38340 ft 444 kts 265°
2026-04-27 14:33 39.54297 95.91792 38343 ft 444 kts 265°
2026-04-27 14:34 39.53439 95.83873 38342 ft 444 kts 265°
2026-04-27 14:34 39.52555 95.75954 38342 ft 444 kts 265°
2026-04-27 14:35 39.51659 95.68032 38347 ft 445 kts 265°
2026-04-27 14:35 39.50763 95.60111 38347 ft 445 kts 265°
2026-04-27 14:36 39.49858 95.52184 38346 ft 445 kts 265°
2026-04-27 14:36 39.48950 95.44258 38347 ft 445 kts 265°
2026-04-27 14:37 39.48036 95.36342 38342 ft 445 kts 265°
2026-04-27 14:37 39.47121 95.28466 38339 ft 445 kts 265°
2026-04-27 14:38 39.46189 95.20497 38334 ft 445 kts 265°
2026-04-27 14:38 39.45264 95.12627 38329 ft 445 kts 264°
2026-04-27 14:39 39.44328 95.04717 38310 ft 445 kts 265°
2026-04-27 14:39 39.43386 94.96798 38317 ft 445 kts 265°
2026-04-27 14:40 39.42439 94.88884 38327 ft 445 kts 264°
2026-04-27 14:40 39.41487 94.80976 38320 ft 445 kts 265°
2026-04-27 14:41 39.40528 94.73067 38291 ft 445 kts 264°
2026-04-27 14:41 39.39563 94.65148 38293 ft 445 kts 264°
2026-04-27 14:42 39.38594 94.57240 38296 ft 446 kts 265°
2026-04-27 14:42 39.37621 94.49337 38292 ft 446 kts 264°
2026-04-27 14:43 39.36645 94.41472 38284 ft 445 kts 264°
2026-04-27 14:43 39.35652 94.33517 38284 ft 445 kts 264°
2026-04-27 14:44 39.34669 94.25660 38281 ft 446 kts 264°
2026-04-27 14:44 39.33674 94.17762 38283 ft 446 kts 264°
2026-04-27 14:45 39.32671 94.09860 38277 ft 446 kts 264°
2026-04-27 14:45 39.31662 94.01939 38290 ft 447 kts 264°
2026-04-27 14:46 39.30648 93.94017 38304 ft 448 kts 264°
2026-04-27 14:46 39.29626 93.86081 38304 ft 449 kts 264°
2026-04-27 14:47 39.28595 93.78147 38304 ft 448 kts 264°
2026-04-27 14:47 39.27561 93.70226 38311 ft 448 kts 264°
2026-04-27 14:48 39.26520 93.62302 38311 ft 448 kts 264°
2026-04-27 14:48 39.24956 93.50432 38309 ft 448 kts 264°
2026-04-27 14:49 39.23901 93.42500 38310 ft 449 kts 264°
2026-04-27 14:49 39.22841 93.34569 38308 ft 449 kts 264°
2026-04-27 14:50 39.21775 93.26634 38300 ft 449 kts 264°
2026-04-27 14:50 39.20706 93.18709 38288 ft 449 kts 264°
2026-04-27 14:51 39.19628 93.10776 38302 ft 449 kts 264°
2026-04-27 14:51 39.18729 93.04183 38287 ft 449 kts 264°
2026-04-27 14:52 39.17459 92.94917 38279 ft 449 kts 263°
2026-04-27 14:52 39.16367 92.87002 38271 ft 449 kts 263°
2026-04-27 14:53 39.15269 92.79088 38271 ft 449 kts 263°
2026-04-27 14:53 39.14167 92.71176 38283 ft 449 kts 263°
2026-04-27 14:54 39.13059 92.63263 38277 ft 449 kts 263°
2026-04-27 14:54 39.11951 92.55412 38270 ft 449 kts 263°
2026-04-27 14:55 39.10833 92.47509 38269 ft 449 kts 263°
2026-04-27 14:55 39.09710 92.39611 38273 ft 449 kts 263°
2026-04-27 14:56 39.08581 92.31707 38274 ft 449 kts 263°
2026-04-27 14:56 39.07436 92.23820 38277 ft 449 kts 262°
2026-04-27 14:57 39.06260 92.15931 38278 ft 449 kts 262°
2026-04-27 14:57 39.05079 92.08066 38283 ft 448 kts 262°
2026-04-27 14:58 39.04095 92.01514 38284 ft 449 kts 262°
2026-04-27 14:58 39.02908 91.93632 38293 ft 449 kts 262°
2026-04-27 14:59 39.01715 91.85743 38297 ft 450 kts 262°
2026-04-27 14:59 39.00517 91.77850 38300 ft 450 kts 262°
2026-04-27 15:00 38.99313 91.69962 38295 ft 450 kts 262°
2026-04-27 15:00 38.98099 91.62051 38295 ft 451 kts 262°
2026-04-27 15:01 38.96881 91.54151 38295 ft 451 kts 262°
2026-04-27 15:01 38.95658 91.46250 38293 ft 451 kts 262°
2026-04-27 15:02 38.94426 91.38334 38298 ft 452 kts 262°
2026-04-27 15:02 38.93189 91.30424 38296 ft 452 kts 262°
2026-04-27 15:03 38.91956 91.22570 38295 ft 452 kts 262°
2026-04-27 15:03 38.90708 91.14663 38296 ft 452 kts 262°
2026-04-27 15:04 38.89456 91.06760 38298 ft 452 kts 262°
2026-04-27 15:04 38.88197 90.98858 38301 ft 452 kts 262°
2026-04-27 15:05 38.86977 90.90965 38302 ft 451 kts 263°
2026-04-27 15:05 38.85999 90.83024 38307 ft 450 kts 264°
2026-04-27 15:06 38.85066 90.75089 38306 ft 450 kts 264°
2026-04-27 15:06 38.84090 90.67152 38311 ft 450 kts 264°
2026-04-27 15:07 38.83089 90.59250 38308 ft 449 kts 264°
2026-04-27 15:07 38.82076 90.51342 38304 ft 449 kts 264°
2026-04-27 15:08 38.81060 90.43446 38300 ft 449 kts 264°
2026-04-27 15:08 38.80040 90.35559 38300 ft 448 kts 264°
2026-04-27 15:09 38.79018 90.27676 38294 ft 448 kts 264°
2026-04-27 15:09 38.77991 90.19805 38288 ft 448 kts 264°
2026-04-27 15:10 38.76960 90.11944 38284 ft 447 kts 264°
2026-04-27 15:10 38.75924 90.04090 38282 ft 447 kts 264°
2026-04-27 15:11 38.74884 89.96249 38279 ft 446 kts 264°
2026-04-27 15:11 38.73846 89.88462 38276 ft 446 kts 264°
2026-04-27 15:12 38.72797 89.80629 38274 ft 446 kts 264°
2026-04-27 15:12 38.71743 89.72809 38273 ft 446 kts 264°
2026-04-27 15:13 38.70685 89.64994 38274 ft 446 kts 264°
2026-04-27 15:13 38.69622 89.57179 38272 ft 445 kts 264°
2026-04-27 15:14 38.68554 89.49376 38265 ft 445 kts 264°
2026-04-27 15:14 38.67480 89.41571 38265 ft 445 kts 263°
2026-04-27 15:15 38.66404 89.33779 38261 ft 445 kts 264°
2026-04-27 15:15 38.65320 89.25982 38258 ft 445 kts 263°
2026-04-27 15:16 38.64232 89.18181 38243 ft 445 kts 263°
2026-04-27 15:16 38.63141 89.10405 38242 ft 444 kts 263°
2026-04-27 15:17 38.62043 89.02618 38236 ft 445 kts 263°
2026-04-27 15:17 38.60938 88.94824 38232 ft 445 kts 263°
2026-04-27 15:18 38.59829 88.87055 38230 ft 444 kts 263°
2026-04-27 15:18 38.58717 88.79304 38221 ft 444 kts 263°
2026-04-27 15:19 38.57603 88.71546 38213 ft 443 kts 263°
2026-04-27 15:19 38.56666 88.63824 38203 ft 441 kts 266°
2026-04-27 15:20 38.55995 88.56049 38195 ft 440 kts 267°
2026-04-27 15:20 38.55314 88.48276 38191 ft 440 kts 266°
2026-04-27 15:21 38.54577 88.40509 38177 ft 440 kts 266°
2026-04-27 15:21 38.53814 88.32759 38168 ft 440 kts 266°
2026-04-27 15:22 38.53041 88.25017 38151 ft 439 kts 266°
2026-04-27 15:22 38.52267 88.17265 38136 ft 439 kts 265°
2026-04-27 15:23 38.51492 88.09531 38126 ft 440 kts 265°
2026-04-27 15:23 38.50711 88.01792 38148 ft 440 kts 265°
2026-04-27 15:24 38.49922 87.94034 38128 ft 441 kts 265°
2026-04-27 15:24 38.49123 87.86284 38090 ft 440 kts 265°
2026-04-27 15:25 38.48325 87.78545 38077 ft 440 kts 265°
2026-04-27 15:25 38.47523 87.70800 38067 ft 440 kts 265°
2026-04-27 15:26 38.46714 87.63058 38054 ft 440 kts 265°
2026-04-27 15:26 38.45900 87.55314 38045 ft 440 kts 265°
2026-04-27 15:27 38.45086 87.47627 38057 ft 440 kts 265°
2026-04-27 15:27 38.44261 87.39887 38052 ft 440 kts 265°
2026-04-27 15:28 38.43431 87.32145 38040 ft 441 kts 264°
2026-04-27 15:28 38.42596 87.24409 38044 ft 440 kts 264°
2026-04-27 15:29 38.41757 87.16676 38034 ft 441 kts 264°
2026-04-27 15:29 38.40910 87.08928 38036 ft 441 kts 264°
2026-04-27 15:30 38.40060 87.01196 38038 ft 441 kts 264°
2026-04-27 15:30 38.39205 86.93467 38026 ft 441 kts 264°
2026-04-27 15:31 38.38343 86.85724 38023 ft 441 kts 264°
2026-04-27 15:31 38.37476 86.77982 38020 ft 441 kts 264°
2026-04-27 15:32 38.36604 86.70247 38019 ft 441 kts 264°
2026-04-27 15:32 38.35726 86.62503 38012 ft 442 kts 264°
2026-04-27 15:33 38.34844 86.54771 38000 ft 442 kts 264°
2026-04-27 15:33 38.33955 86.47024 38005 ft 442 kts 264°
2026-04-27 15:34 38.33061 86.39273 37993 ft 442 kts 263°
2026-04-27 15:34 38.32161 86.31521 37997 ft 443 kts 263°
2026-04-27 15:35 38.31254 86.23766 37993 ft 443 kts 263°
2026-04-27 15:35 38.30343 86.16005 37987 ft 443 kts 263°
2026-04-27 15:36 38.29426 86.08243 37987 ft 443 kts 263°
2026-04-27 15:36 38.28504 86.00489 37991 ft 444 kts 263°
2026-04-27 15:37 38.27582 85.92775 37991 ft 444 kts 263°
2026-04-27 15:37 38.26642 85.84962 37996 ft 444 kts 263°
2026-04-27 15:38 38.25710 85.77251 37986 ft 444 kts 263°
2026-04-27 15:38 38.24766 85.69490 37991 ft 444 kts 263°
2026-04-27 15:39 38.23816 85.61728 37992 ft 444 kts 263°
2026-04-27 15:39 38.22861 85.53961 37993 ft 444 kts 263°
2026-04-27 15:40 38.21814 85.46157 38101 ft 446 kts 258°
2026-04-27 15:40 38.20903 85.42384 38387 ft 447 kts 251°
2026-04-27 15:40 38.19756 85.38721 38636 ft 446 kts 250°
2026-04-27 15:41 38.18543 85.35084 38811 ft 446 kts 250°
2026-04-27 15:41 38.17296 85.31463 38957 ft 447 kts 249°
2026-04-27 15:41 38.16060 85.27919 39103 ft 447 kts 249°
2026-04-27 15:41 38.14790 85.24290 39240 ft 447 kts 249°
2026-04-27 15:42 38.13531 85.20682 39383 ft 448 kts 249°
2026-04-27 15:42 38.12271 85.17064 39522 ft 448 kts 249°
2026-04-27 15:42 38.11014 85.13448 39659 ft 448 kts 249°
2026-04-27 15:42 38.09757 85.09826 39788 ft 448 kts 249°
2026-04-27 15:43 38.07236 85.02565 39894 ft 451 kts 249°
2026-04-27 15:43 38.04705 84.95296 39890 ft 450 kts 249°
2026-04-27 15:44 38.02209 84.88022 39884 ft 449 kts 252°
2026-04-27 15:44 38.00531 84.80447 39887 ft 446 kts 259°
2026-04-27 15:45 37.99173 84.72784 39884 ft 445 kts 260°
2026-04-27 15:45 37.97861 84.65115 39883 ft 445 kts 260°
2026-04-27 15:46 37.96763 84.58760 39880 ft 445 kts 260°
2026-04-27 15:46 37.95422 84.51100 39882 ft 445 kts 259°
2026-04-27 15:47 37.94071 84.43448 39883 ft 445 kts 259°
2026-04-27 15:47 37.92717 84.35812 39881 ft 444 kts 259°
2026-04-27 15:48 37.91360 84.28185 39882 ft 444 kts 259°
2026-04-27 15:49 37.89316 84.16752 39878 ft 444 kts 259°
2026-04-27 15:49 37.87947 84.09128 39876 ft 443 kts 259°
2026-04-27 15:50 37.86576 84.01526 39876 ft 443 kts 259°
2026-04-27 15:50 37.85200 83.93929 39877 ft 443 kts 259°
2026-04-27 15:51 37.83818 83.86330 39872 ft 443 kts 259°
2026-04-27 15:51 37.82433 83.78736 39870 ft 443 kts 259°
2026-04-27 15:52 37.81043 83.71154 39870 ft 443 kts 259°
2026-04-27 15:52 37.79650 83.63579 39868 ft 442 kts 259°
2026-04-27 15:53 37.78250 83.55997 39865 ft 442 kts 258°
2026-04-27 15:53 37.76849 83.48434 39866 ft 442 kts 258°
2026-04-27 15:54 37.75441 83.40867 39864 ft 442 kts 258°
2026-04-27 15:54 37.74032 83.33313 39864 ft 442 kts 258°
2026-04-27 15:55 37.72622 83.25767 39865 ft 442 kts 258°
2026-04-27 15:55 37.71212 83.18261 39861 ft 441 kts 258°
2026-04-27 15:56 37.69791 83.10725 39858 ft 441 kts 258°
2026-04-27 15:56 37.68365 83.03187 39859 ft 441 kts 258°
2026-04-27 15:57 37.66936 82.95657 39855 ft 441 kts 258°
2026-04-27 15:57 37.65501 82.88125 39853 ft 441 kts 258°
2026-04-27 15:58 37.64061 82.80600 39853 ft 441 kts 258°
2026-04-27 15:58 37.62621 82.73095 39853 ft 441 kts 258°
2026-04-27 15:59 37.61170 82.65567 39852 ft 441 kts 258°
2026-04-27 15:59 37.59717 82.58054 39851 ft 441 kts 258°
2026-04-27 16:00 37.58258 82.50536 39855 ft 441 kts 258°
2026-04-27 16:00 37.56796 82.43030 39854 ft 441 kts 258°
2026-04-27 16:01 37.55330 82.35532 39849 ft 441 kts 258°
2026-04-27 16:01 37.53859 82.28032 39851 ft 441 kts 258°
2026-04-27 16:02 37.52383 82.20542 39849 ft 440 kts 258°
2026-04-27 16:02 37.50905 82.13063 39846 ft 440 kts 258°
2026-04-27 16:03 37.49421 82.05583 39846 ft 439 kts 258°
2026-04-27 16:03 37.47936 81.98122 39851 ft 439 kts 258°
2026-04-27 16:04 37.46448 81.90672 39849 ft 439 kts 257°
2026-04-27 16:04 37.44953 81.83211 39844 ft 439 kts 258°
2026-04-27 16:05 37.43453 81.75756 39842 ft 440 kts 257°
2026-04-27 16:05 37.41958 81.68354 39840 ft 440 kts 257°
2026-04-27 16:06 37.40448 81.60899 39844 ft 440 kts 257°
2026-04-27 16:06 37.38923 81.53400 39840 ft 440 kts 257°
2026-04-27 16:07 37.37413 81.45999 39840 ft 440 kts 257°
2026-04-27 16:07 37.35887 81.38549 39829 ft 440 kts 257°
2026-04-27 16:08 37.34356 81.31096 39835 ft 441 kts 257°
2026-04-27 16:08 37.32819 81.23639 39842 ft 441 kts 257°
2026-04-27 16:09 37.31277 81.16186 39838 ft 441 kts 257°
2026-04-27 16:09 37.28954 81.05006 39845 ft 441 kts 257°
2026-04-27 16:10 37.25835 80.90085 39835 ft 442 kts 257°
2026-04-27 16:11 37.23480 80.78884 39838 ft 442 kts 257°
2026-04-27 16:12 37.21114 80.67688 39836 ft 443 kts 257°
2026-04-27 16:13 37.18734 80.56487 39838 ft 443 kts 257°
2026-04-27 16:13 37.16342 80.45281 39842 ft 444 kts 257°
2026-04-27 16:14 37.13134 80.30344 39846 ft 444 kts 257°
2026-04-27 16:15 37.09908 80.15419 39851 ft 444 kts 257°
2026-04-27 16:16 37.06662 80.00509 39850 ft 444 kts 257°
2026-04-27 16:17 37.03798 79.85521 39856 ft 441 kts 267°
2026-04-27 16:18 37.03575 79.70265 39866 ft 440 kts 271°
2026-04-27 16:19 37.03572 79.62602 39864 ft 440 kts 271°
2026-04-27 16:20 37.03505 79.47287 39872 ft 440 kts 270°
2026-04-27 16:21 37.03430 79.35800 39879 ft 440 kts 270°
2026-04-27 16:22 37.03315 79.20498 39894 ft 440 kts 270°
2026-04-27 16:22 37.03216 79.09009 39910 ft 440 kts 270°
2026-04-27 16:23 37.03106 78.97526 39919 ft 440 kts 270°
2026-04-27 16:24 37.03026 78.89871 39931 ft 440 kts 270°
2026-04-27 16:25 37.02854 78.74555 39956 ft 440 kts 270°
2026-04-27 16:26 37.02662 78.59276 39971 ft 442 kts 269°
2026-04-27 16:27 37.02446 78.43917 39989 ft 442 kts 269°
2026-04-27 16:28 37.02150 78.24702 40014 ft 442 kts 269°
2026-04-27 16:29 37.01824 78.05482 40037 ft 443 kts 269°
2026-04-27 16:30 37.01541 77.90084 40048 ft 443 kts 269°
2026-04-27 16:31 37.01154 77.70776 40049 ft 444 kts 269°
2026-04-27 16:32 37.00909 77.59187 40065 ft 444 kts 269°
2026-04-27 16:33 37.00654 77.47586 40065 ft 444 kts 269°
2026-04-27 16:33 37.00507 77.41173 40081 ft 444 kts 269°
2026-04-27 16:34 37.00323 77.33449 40087 ft 446 kts 269°
2026-04-27 16:34 37.00136 77.25686 40077 ft 445 kts 269°
2026-04-27 16:35 36.99947 77.17960 40091 ft 446 kts 269°
2026-04-27 16:36 36.99646 77.06323 40083 ft 446 kts 269°
2026-04-27 16:36 36.99439 76.98555 40099 ft 446 kts 268°
2026-04-27 16:37 36.99228 76.90796 40092 ft 447 kts 268°
2026-04-27 16:37 36.99014 76.83019 40118 ft 447 kts 269°
2026-04-27 16:38 36.98792 76.75236 40128 ft 448 kts 268°
2026-04-27 16:38 36.98566 76.67458 40140 ft 448 kts 268°
2026-04-27 16:39 36.98336 76.59664 40158 ft 449 kts 268°
2026-04-27 16:39 36.98101 76.51860 40151 ft 448 kts 268°
2026-04-27 16:40 36.97860 76.44056 40167 ft 449 kts 268°
2026-04-27 16:40 36.97611 76.36251 40168 ft 449 kts 268°
2026-04-27 16:41 36.97358 76.28458 40166 ft 450 kts 268°
2026-04-27 16:41 36.97100 76.20638 40156 ft 449 kts 268°
2026-04-27 16:42 36.96837 76.12831 40148 ft 450 kts 268°
2026-04-27 16:42 36.96568 76.05026 40150 ft 449 kts 268°
2026-04-27 16:43 36.96295 75.97230 40137 ft 448 kts 267°
2026-04-27 16:43 36.96018 75.89438 40142 ft 448 kts 268°
2026-04-27 16:44 36.95735 75.81673 40164 ft 447 kts 268°
2026-04-27 16:44 36.95448 75.73912 40166 ft 448 kts 268°
2026-04-27 16:45 36.95159 75.66145 40157 ft 447 kts 268°
2026-04-27 16:45 36.94863 75.58379 40174 ft 447 kts 268°
2026-04-27 16:46 36.94501 75.50669 40177 ft 447 kts 264°
2026-04-27 16:46 36.92977 75.43137 40176 ft 451 kts 249°
2026-04-27 16:47 36.89705 75.36423 40172 ft 457 kts 232°
2026-04-27 16:47 36.85071 75.30929 40176 ft 461 kts 224°
2026-04-27 16:48 36.80146 75.25752 40175 ft 464 kts 224°
2026-04-27 16:48 36.75199 75.20588 40158 ft 463 kts 224°
2026-04-27 16:49 36.67815 75.12789 40223 ft 465 kts 225°
2026-04-27 16:49 36.62911 75.07568 40174 ft 464 kts 224°
2026-04-27 16:50 36.57988 75.02365 40182 ft 464 kts 224°
2026-04-27 16:50 36.53065 74.97188 40183 ft 462 kts 224°
2026-04-27 16:51 36.48176 74.92069 40197 ft 458 kts 224°
2026-04-27 16:51 36.43272 74.86895 40186 ft 464 kts 224°
2026-04-27 16:52 36.38345 74.81710 40185 ft 464 kts 223°
2026-04-27 16:52 36.33421 74.76546 40176 ft 463 kts 224°
2026-04-27 16:53 36.28500 74.71396 40163 ft 463 kts 224°
2026-04-27 16:53 36.23580 74.66256 40148 ft 463 kts 224°
2026-04-27 16:54 36.18652 74.61121 40127 ft 463 kts 224°
2026-04-27 16:54 36.13737 74.56004 40106 ft 461 kts 224°
2026-04-27 16:55 36.08857 74.50930 40071 ft 460 kts 224°
2026-04-27 16:55 36.03958 74.45844 40069 ft 459 kts 223°
2026-04-27 16:56 35.99062 74.40776 40057 ft 459 kts 223°
2026-04-27 16:56 35.94174 74.35721 40031 ft 458 kts 223°
2026-04-27 16:57 35.89787 74.30116 40032 ft 453 kts 232°
2026-04-27 16:57 35.85765 74.24138 40032 ft 452 kts 233°
2026-04-27 16:58 35.81802 74.18122 40016 ft 451 kts 234°
2026-04-27 16:58 35.77840 74.12126 40020 ft 452 kts 233°
2026-04-27 16:59 35.73863 74.06141 40013 ft 452 kts 233°
2026-04-27 16:59 35.69877 74.00167 40004 ft 452 kts 233°
2026-04-27 17:00 35.63882 73.91204 39997 ft 452 kts 233°
2026-04-27 17:01 35.59886 73.85240 39985 ft 452 kts 233°
2026-04-27 17:01 35.55875 73.79268 39980 ft 453 kts 233°
2026-04-27 17:02 35.51856 73.73290 40001 ft 456 kts 233°
2026-04-27 17:02 35.47821 73.67304 40000 ft 454 kts 233°
2026-04-27 17:03 35.43803 73.61340 40006 ft 454 kts 233°
2026-04-27 17:03 35.39772 73.55363 40020 ft 455 kts 233°
2026-04-27 17:04 35.35736 73.49412 40020 ft 454 kts 233°
2026-04-27 17:04 35.31693 73.43455 40023 ft 455 kts 233°
2026-04-27 17:05 35.27643 73.37498 40019 ft 455 kts 233°
2026-04-27 17:05 35.23596 73.31552 40013 ft 455 kts 233°
2026-04-27 17:06 35.19543 73.25605 40006 ft 455 kts 233°
2026-04-27 17:06 35.15487 73.19668 39987 ft 453 kts 232°
2026-04-27 17:07 35.11438 73.13754 39984 ft 454 kts 233°
2026-04-27 17:07 35.07382 73.07831 39979 ft 455 kts 233°
2026-04-27 17:08 35.03323 73.01919 39938 ft 454 kts 233°
2026-04-27 17:08 34.99264 72.96013 39937 ft 455 kts 233°
2026-04-27 17:09 34.95213 72.90136 39894 ft 455 kts 233°
2026-04-27 17:09 34.91139 72.84231 39880 ft 455 kts 233°
2026-04-27 17:10 34.87055 72.78322 39875 ft 456 kts 233°
2026-04-27 17:10 34.82974 72.72433 39853 ft 455 kts 233°
2026-04-27 17:11 34.78899 72.66555 39840 ft 455 kts 233°
2026-04-27 17:11 34.72766 72.57734 39818 ft 455 kts 233°
2026-04-27 17:12 34.66645 72.48951 39786 ft 454 kts 233°
2026-04-27 17:13 34.62550 72.43083 39784 ft 456 kts 233°
2026-04-27 17:13 34.58450 72.37230 39775 ft 455 kts 233°
2026-04-27 17:14 34.54354 72.31386 39762 ft 454 kts 232°
2026-04-27 17:14 34.50253 72.25546 39747 ft 454 kts 232°
2026-04-27 17:15 34.46182 72.19757 39732 ft 455 kts 232°
2026-04-27 17:15 34.42054 72.13898 39719 ft 454 kts 232°
2026-04-27 17:16 34.37980 72.08122 39709 ft 453 kts 232°
2026-04-27 17:16 34.33885 72.02327 39702 ft 453 kts 232°
2026-04-27 17:17 34.29789 71.96540 39697 ft 453 kts 232°
2026-04-27 17:17 34.25690 71.90760 39685 ft 452 kts 232°
2026-04-27 17:18 34.19546 71.82111 39688 ft 452 kts 232°
2026-04-27 17:18 34.15458 71.76368 39691 ft 451 kts 232°
2026-04-27 17:19 34.11361 71.70622 39693 ft 451 kts 232°
2026-04-27 17:19 34.07269 71.64892 39695 ft 451 kts 232°
2026-04-27 17:20 34.03869 71.60139 39706 ft 451 kts 232°
2026-04-27 17:20 33.99772 71.54419 39706 ft 450 kts 232°
2026-04-27 17:21 33.95316 71.49082 39711 ft 454 kts 226°
2026-04-27 17:21 33.90565 71.44061 39725 ft 454 kts 225°
2026-04-27 17:22 33.85782 71.39102 39734 ft 454 kts 225°
2026-04-27 17:22 33.80995 71.34138 39739 ft 454 kts 225°
2026-04-27 17:23 33.76212 71.29171 39748 ft 454 kts 225°
2026-04-27 17:23 33.71441 71.24212 39773 ft 455 kts 225°
2026-04-27 17:24 33.66653 71.19246 39760 ft 454 kts 225°
2026-04-27 17:24 33.61867 71.14297 39760 ft 454 kts 225°
2026-04-27 17:25 33.57083 71.09354 39779 ft 454 kts 225°
2026-04-27 17:25 33.52288 71.04405 39774 ft 455 kts 225°
2026-04-27 17:26 33.47311 70.99700 39768 ft 459 kts 218°
2026-04-27 17:26 33.41937 70.95562 39757 ft 460 kts 217°
2026-04-27 17:27 33.36495 70.91517 39752 ft 461 kts 216°
2026-04-27 17:27 33.31050 70.87482 39744 ft 461 kts 217°
2026-04-27 17:28 33.25607 70.83437 39732 ft 461 kts 216°
2026-04-27 17:29 33.17437 70.77365 39723 ft 461 kts 217°
2026-04-27 17:29 33.11995 70.73325 39714 ft 461 kts 217°
2026-04-27 17:30 33.06546 70.69286 39710 ft 461 kts 217°
2026-04-27 17:30 32.98372 70.63241 39704 ft 461 kts 216°
2026-04-27 17:31 32.92919 70.59216 39706 ft 461 kts 216°
2026-04-27 17:31 32.87506 70.55125 39704 ft 461 kts 218°
2026-04-27 17:32 32.79442 70.48896 39708 ft 461 kts 218°
2026-04-27 17:33 32.74098 70.44798 39708 ft 461 kts 217°
2026-04-27 17:33 32.68660 70.40650 39712 ft 461 kts 217°
2026-04-27 17:34 32.63303 70.36570 39717 ft 461 kts 217°
2026-04-27 17:34 32.57798 70.32619 39720 ft 463 kts 215°
2026-04-27 17:35 32.52214 70.28814 39726 ft 463 kts 214°
2026-04-27 17:35 32.46632 70.24988 39729 ft 463 kts 215°
2026-04-27 17:36 32.41059 70.21133 39728 ft 463 kts 215°
2026-04-27 17:36 32.35503 70.17278 39731 ft 463 kts 215°
2026-04-27 17:37 32.29991 70.13329 39729 ft 463 kts 216°
2026-04-27 17:37 32.24497 70.09326 39727 ft 463 kts 216°
2026-04-27 17:38 32.19007 70.05345 39730 ft 463 kts 216°
2026-04-27 17:38 32.13498 70.01382 39734 ft 464 kts 216°
2026-04-27 17:39 32.07983 69.97424 39734 ft 464 kts 216°
2026-04-27 17:39 32.02459 69.93466 39737 ft 465 kts 216°
2026-04-27 17:40 31.96927 69.89508 39741 ft 465 kts 216°
2026-04-27 17:40 31.91398 69.85559 39764 ft 465 kts 216°
2026-04-27 17:41 31.85857 69.81607 39760 ft 466 kts 216°
2026-04-27 17:41 31.80311 69.77655 39788 ft 466 kts 216°
2026-04-27 17:42 31.74762 69.73705 39794 ft 466 kts 216°
2026-04-27 17:42 31.69205 69.69757 39805 ft 466 kts 216°
2026-04-27 17:43 31.63653 69.65818 39811 ft 467 kts 216°
2026-04-27 17:43 31.58128 69.61905 39815 ft 467 kts 216°
2026-04-27 17:44 31.52534 69.57947 39823 ft 467 kts 216°
2026-04-27 17:44 31.47007 69.54042 39831 ft 467 kts 216°
2026-04-27 17:45 31.41412 69.50094 39838 ft 467 kts 216°
2026-04-27 17:45 31.36024 69.45986 39844 ft 462 kts 223°
2026-04-27 17:46 31.31458 69.40794 39850 ft 457 kts 230°
2026-04-27 17:46 31.27145 69.35315 39850 ft 457 kts 231°
2026-04-27 17:47 31.22873 69.29814 39854 ft 457 kts 231°
2026-04-27 17:47 31.18582 69.24329 39859 ft 458 kts 231°
2026-04-27 17:48 31.14274 69.18856 39862 ft 458 kts 231°
2026-04-27 17:48 31.09959 69.13390 39860 ft 458 kts 231°
2026-04-27 17:49 31.05636 69.07922 39863 ft 458 kts 231°
2026-04-27 17:49 31.01315 69.02462 39864 ft 459 kts 231°
2026-04-27 17:50 30.96983 68.96997 39864 ft 459 kts 231°
2026-04-27 17:50 30.90485 68.88811 39864 ft 459 kts 231°
2026-04-27 17:51 30.86135 68.83342 39862 ft 460 kts 231°
2026-04-27 17:51 30.81793 68.77891 39860 ft 460 kts 231°
2026-04-27 17:52 30.77438 68.72431 39863 ft 460 kts 231°
2026-04-27 17:52 30.73819 68.67901 39853 ft 460 kts 231°
2026-04-27 17:53 30.68750 68.61564 39854 ft 460 kts 231°
2026-04-27 17:53 30.64389 68.56120 39856 ft 460 kts 231°
2026-04-27 17:54 30.60027 68.50680 39854 ft 460 kts 231°
2026-04-27 17:54 30.55661 68.45247 39857 ft 460 kts 230°
2026-04-27 17:55 30.51289 68.39813 39860 ft 460 kts 231°
2026-04-27 17:55 30.46920 68.34390 39864 ft 460 kts 231°
2026-04-27 17:56 30.42553 68.28976 39867 ft 460 kts 231°
2026-04-27 17:56 30.38174 68.23556 39865 ft 460 kts 231°
2026-04-27 17:57 30.33802 68.18152 39865 ft 460 kts 231°
2026-04-27 17:57 30.29427 68.12753 39861 ft 460 kts 231°
2026-04-27 17:58 30.25043 68.07352 39851 ft 460 kts 230°
2026-04-27 17:58 30.20657 68.01954 39836 ft 462 kts 231°
2026-04-27 17:59 30.16259 67.96543 39819 ft 461 kts 231°
2026-04-27 17:59 30.11862 67.91140 39804 ft 462 kts 231°
2026-04-27 18:00 30.07461 67.85743 39785 ft 462 kts 231°
2026-04-27 18:00 30.03072 67.80318 39770 ft 462 kts 231°
2026-04-27 18:01 29.98697 67.74888 39755 ft 462 kts 231°
2026-04-27 18:01 29.94344 67.69500 39744 ft 462 kts 231°
2026-04-27 18:02 29.89953 67.64082 39738 ft 462 kts 231°
2026-04-27 18:02 29.85532 67.58638 39744 ft 462 kts 231°
2026-04-27 18:03 29.81167 67.53267 39760 ft 462 kts 231°
2026-04-27 18:03 29.76765 67.47860 39753 ft 463 kts 231°
2026-04-27 18:04 29.72361 67.42462 39760 ft 463 kts 231°
2026-04-27 18:04 29.67965 67.37057 39767 ft 462 kts 231°
2026-04-27 18:05 29.63587 67.31665 39773 ft 461 kts 231°
2026-04-27 18:05 29.59206 67.26282 39800 ft 461 kts 231°
2026-04-27 18:06 29.54824 67.20908 39814 ft 462 kts 231°
2026-04-27 18:06 29.50440 67.15543 39832 ft 460 kts 231°
2026-04-27 18:07 29.46059 67.10190 39860 ft 460 kts 231°
2026-04-27 18:07 29.42422 67.05751 39852 ft 460 kts 232°
2026-04-27 18:08 29.38043 67.00409 39874 ft 460 kts 231°
2026-04-27 18:08 29.33663 66.95071 39891 ft 460 kts 231°
2026-04-27 18:09 29.29267 66.89723 39891 ft 461 kts 231°
2026-04-27 18:09 29.24868 66.84383 39897 ft 461 kts 231°
2026-04-27 18:10 29.20469 66.79051 39897 ft 461 kts 232°
2026-04-27 18:10 29.16066 66.73717 39902 ft 461 kts 232°
2026-04-27 18:11 29.11661 66.68388 39904 ft 461 kts 232°
2026-04-27 18:11 29.07513 66.62841 39904 ft 455 kts 241°
2026-04-27 18:12 29.04802 66.56477 39904 ft 445 kts 256°
2026-04-27 18:12 29.03893 66.49560 39901 ft 439 kts 272°
2026-04-27 18:13 29.04189 66.42595 39894 ft 439 kts 275°
2026-04-27 18:13 29.04642 66.35627 39889 ft 439 kts 275°
2026-04-27 18:14 29.05079 66.28668 39883 ft 439 kts 275°
2026-04-27 18:14 29.05483 66.21718 39868 ft 438 kts 275°
2026-04-27 18:15 29.05871 66.14764 39860 ft 438 kts 275°
2026-04-27 18:15 29.06254 66.07830 39843 ft 437 kts 275°
2026-04-27 18:16 29.06633 66.00897 39831 ft 437 kts 275°
2026-04-27 18:16 29.07011 65.93973 39815 ft 436 kts 275°
2026-04-27 18:17 29.07383 65.87056 39803 ft 436 kts 275°
2026-04-27 18:17 29.07754 65.80136 39792 ft 436 kts 275°
2026-04-27 18:18 29.08120 65.73232 39781 ft 436 kts 275°
2026-04-27 18:18 29.08483 65.66321 39769 ft 435 kts 275°
2026-04-27 18:19 29.08842 65.59410 39767 ft 435 kts 275°
2026-04-27 18:19 29.09197 65.52497 39766 ft 436 kts 275°
2026-04-27 18:20 29.09549 65.45577 39766 ft 436 kts 275°
2026-04-27 18:20 29.09897 65.38660 39761 ft 436 kts 275°
2026-04-27 18:21 29.10242 65.31740 39769 ft 436 kts 275°
2026-04-27 18:21 29.10583 65.24828 39774 ft 436 kts 274°
2026-04-27 18:22 29.10854 65.17899 39775 ft 435 kts 274°
2026-04-27 18:22 29.11078 65.11035 39772 ft 435 kts 274°
2026-04-27 18:23 29.11309 65.04125 39777 ft 435 kts 274°
2026-04-27 18:23 29.11548 64.97224 39774 ft 434 kts 274°
2026-04-27 18:24 29.11787 64.90331 39779 ft 434 kts 274°
2026-04-27 18:24 29.12022 64.83443 39774 ft 434 kts 274°
2026-04-27 18:25 29.12253 64.76560 39773 ft 434 kts 274°
2026-04-27 18:25 29.12480 64.69664 39775 ft 433 kts 274°
2026-04-27 18:26 29.12703 64.62779 39777 ft 433 kts 274°
2026-04-27 18:26 29.12923 64.55892 39779 ft 433 kts 274°
2026-04-27 18:27 29.13139 64.49011 39787 ft 433 kts 273°
2026-04-27 18:27 29.13351 64.42129 39782 ft 433 kts 273°
2026-04-27 18:28 29.13828 64.35272 39794 ft 432 kts 278°
2026-04-27 18:28 29.14655 64.28463 39799 ft 432 kts 278°
2026-04-27 18:29 29.15454 64.21707 39801 ft 432 kts 278°
2026-04-27 18:29 29.16196 64.14840 39806 ft 432 kts 278°
2026-04-27 18:30 29.16901 64.08024 39810 ft 432 kts 277°
2026-04-27 18:30 29.17599 64.01206 39809 ft 431 kts 277°
2026-04-27 18:31 29.18294 63.94433 39817 ft 431 kts 277°
2026-04-27 18:31 29.18993 63.87577 39815 ft 430 kts 277°
2026-04-27 18:32 29.19682 63.80786 39816 ft 430 kts 277°
2026-04-27 18:32 29.20370 63.73984 39816 ft 430 kts 277°
2026-04-27 18:33 29.21048 63.67238 39819 ft 429 kts 277°
2026-04-27 18:33 29.21727 63.60455 39815 ft 429 kts 277°
2026-04-27 18:34 29.22403 63.53672 39815 ft 429 kts 277°
2026-04-27 18:34 29.23074 63.46889 39812 ft 429 kts 277°
2026-04-27 18:35 29.23748 63.40064 39812 ft 429 kts 277°
2026-04-27 18:35 29.24408 63.33314 39810 ft 429 kts 277°
2026-04-27 18:36 29.25069 63.26529 39809 ft 429 kts 277°
2026-04-27 18:36 29.25726 63.19744 39812 ft 429 kts 277°
2026-04-27 18:37 29.26381 63.12950 39813 ft 429 kts 277°
2026-04-27 18:37 29.27032 63.06165 39809 ft 429 kts 277°
2026-04-27 18:38 29.27680 62.99382 39811 ft 428 kts 277°
2026-04-27 18:38 29.28324 62.92601 39813 ft 428 kts 277°
2026-04-27 18:39 29.28963 62.85823 39828 ft 428 kts 277°
2026-04-27 18:39 29.29599 62.79045 39829 ft 428 kts 277°
2026-04-27 18:40 29.30231 62.72269 39829 ft 427 kts 276°
2026-04-27 18:40 29.30859 62.65515 39836 ft 427 kts 276°
2026-04-27 18:41 29.31485 62.58735 39831 ft 427 kts 276°
2026-04-27 18:41 29.32104 62.51986 39830 ft 426 kts 276°
2026-04-27 18:42 29.32616 62.46371 39830 ft 426 kts 276°
2026-04-27 18:42 29.33332 62.38488 39836 ft 425 kts 276°
2026-04-27 18:43 29.33937 62.31795 39835 ft 425 kts 276°
2026-04-27 18:43 29.34540 62.25067 39838 ft 424 kts 276°
2026-04-27 18:44 29.35144 62.18297 39838 ft 424 kts 276°
2026-04-27 18:44 29.35740 62.11576 39844 ft 424 kts 276°
2026-04-27 18:45 29.36328 62.04906 39842 ft 423 kts 276°
2026-04-27 18:45 29.36917 61.98195 39849 ft 423 kts 276°
2026-04-27 18:46 29.37501 61.91486 39868 ft 423 kts 276°
2026-04-27 18:46 29.38083 61.84779 39875 ft 422 kts 276°
2026-04-27 18:47 29.38661 61.78075 39876 ft 423 kts 276°
2026-04-27 18:47 29.39235 61.71369 39889 ft 423 kts 276°
2026-04-27 18:48 29.39806 61.64664 39896 ft 422 kts 276°
2026-04-27 18:48 29.40373 61.57961 39906 ft 422 kts 276°
2026-04-27 18:49 29.40937 61.51255 39915 ft 423 kts 276°
2026-04-27 18:49 29.41498 61.44549 39926 ft 423 kts 276°
2026-04-27 18:50 29.42056 61.37829 39946 ft 423 kts 276°
2026-04-27 18:50 29.42610 61.31118 39948 ft 423 kts 276°
2026-04-27 18:51 29.43249 61.24403 39996 ft 423 kts 279°
2026-04-27 18:51 29.44318 61.17763 40019 ft 423 kts 281°
2026-04-27 18:52 29.45447 61.11133 40030 ft 423 kts 280°
2026-04-27 18:53 29.47018 61.01156 40044 ft 424 kts 279°
2026-04-27 18:53 29.47704 60.94491 40047 ft 424 kts 271°
2026-04-27 18:54 29.46948 60.87771 40045 ft 429 kts 257°
2026-04-27 18:54 29.44589 60.81438 40045 ft 435 kts 247°
2026-04-27 18:55 29.41672 60.75342 40038 ft 437 kts 245°
2026-04-27 18:55 29.38697 60.69268 40038 ft 437 kts 245°
2026-04-27 18:56 29.36221 60.64171 40030 ft 437 kts 246°
2026-04-27 18:56 29.33303 60.58117 40019 ft 437 kts 246°
2026-04-27 18:57 29.30365 60.52015 40017 ft 437 kts 246°
2026-04-27 18:57 29.27435 60.45912 40010 ft 437 kts 246°
2026-04-27 18:58 29.24495 60.39800 40000 ft 438 kts 245°
2026-04-27 18:58 29.21555 60.33695 39992 ft 438 kts 246°
2026-04-27 18:59 29.18625 60.27585 39975 ft 438 kts 245°
2026-04-27 18:59 29.15691 60.21478 39957 ft 438 kts 245°
2026-04-27 19:00 29.12750 60.15374 39942 ft 437 kts 245°
2026-04-27 19:00 29.09810 60.09286 39946 ft 438 kts 245°
2026-04-27 19:01 29.06862 60.03191 39912 ft 438 kts 245°
2026-04-27 19:01 29.03913 59.97100 39899 ft 438 kts 245°
2026-04-27 19:02 29.00961 59.91013 39883 ft 438 kts 245°
2026-04-27 19:02 28.98006 59.84937 39863 ft 437 kts 245°
2026-04-27 19:03 28.95039 59.78882 39857 ft 437 kts 245°
2026-04-27 19:03 28.92072 59.72839 39854 ft 436 kts 245°
2026-04-27 19:04 28.89103 59.66797 39841 ft 436 kts 245°
2026-04-27 19:04 28.86139 59.60772 39833 ft 436 kts 245°
2026-04-27 19:05 28.83169 59.54745 39841 ft 435 kts 244°
2026-04-27 19:05 28.80203 59.48734 39836 ft 435 kts 244°
2026-04-27 19:06 28.77240 59.42740 39824 ft 434 kts 244°
2026-04-27 19:06 28.74266 59.36730 39828 ft 434 kts 244°
2026-04-27 19:07 28.71301 59.30748 39823 ft 434 kts 244°
2026-04-27 19:07 28.68336 59.24776 39838 ft 433 kts 244°
2026-04-27 19:08 28.65377 59.18822 39832 ft 433 kts 244°
2026-04-27 19:08 28.62393 59.12828 39840 ft 433 kts 244°
2026-04-27 19:09 28.59436 59.06897 39837 ft 433 kts 244°
2026-04-27 19:09 28.56459 59.00933 39850 ft 433 kts 244°
2026-04-27 19:10 28.53480 58.94974 39854 ft 434 kts 244°
2026-04-27 19:10 28.50495 58.89012 39847 ft 434 kts 244°
2026-04-27 19:11 28.47509 58.83057 39866 ft 434 kts 244°
2026-04-27 19:11 28.44513 58.77090 39873 ft 434 kts 244°
2026-04-27 19:12 28.41520 58.71135 39876 ft 435 kts 244°
2026-04-27 19:12 28.38514 58.65168 39874 ft 435 kts 244°
2026-04-27 19:13 28.35514 58.59219 39873 ft 434 kts 244°
2026-04-27 19:13 28.32501 58.53254 39869 ft 435 kts 244°
2026-04-27 19:14 28.29488 58.47294 39862 ft 436 kts 244°
2026-04-27 19:14 28.26468 58.41332 39856 ft 436 kts 244°
2026-04-27 19:15 28.23422 58.35378 39842 ft 436 kts 244°
2026-04-27 19:15 28.20371 58.29424 39825 ft 437 kts 243°
2026-04-27 19:16 28.17321 58.23478 39809 ft 437 kts 243°
2026-04-27 19:16 28.14266 58.17525 39794 ft 437 kts 243°
2026-04-27 19:17 28.11228 58.11614 39784 ft 437 kts 243°
2026-04-27 19:17 28.08149 58.05635 39776 ft 437 kts 243°
2026-04-27 19:18 28.05082 57.99684 39771 ft 437 kts 243°
2026-04-27 19:18 28.02034 57.93780 39769 ft 437 kts 243°
2026-04-27 19:19 27.98966 57.87845 39768 ft 437 kts 243°
2026-04-27 19:19 27.95890 57.81903 39773 ft 437 kts 243°
2026-04-27 19:20 27.92818 57.75977 39774 ft 437 kts 243°
2026-04-27 19:20 27.89737 57.70042 39779 ft 437 kts 243°
2026-04-27 19:21 27.86658 57.64119 39783 ft 437 kts 243°
2026-04-27 19:21 27.83572 57.58191 39784 ft 437 kts 243°
2026-04-27 19:22 27.80483 57.52265 39790 ft 438 kts 243°
2026-04-27 19:22 27.77398 57.46351 39792 ft 437 kts 243°
2026-04-27 19:23 27.74310 57.40445 39791 ft 437 kts 243°
2026-04-27 19:23 27.71222 57.34547 39792 ft 437 kts 243°
2026-04-27 19:24 27.68130 57.28643 39789 ft 437 kts 243°
2026-04-27 19:24 27.65053 57.22734 39789 ft 437 kts 243°
2026-04-27 19:25 27.61998 57.16871 39787 ft 437 kts 243°
2026-04-27 19:25 27.58915 57.10971 39786 ft 437 kts 243°
2026-04-27 19:26 27.55831 57.05082 39783 ft 436 kts 243°
2026-04-27 19:26 27.52743 56.99194 39779 ft 436 kts 243°
2026-04-27 19:27 27.49655 56.93312 39783 ft 437 kts 243°
2026-04-27 19:27 27.46571 56.87446 39775 ft 436 kts 243°
2026-04-27 19:28 27.43474 56.81565 39771 ft 436 kts 243°
2026-04-27 19:28 27.40381 56.75698 39766 ft 436 kts 243°
2026-04-27 19:29 27.37283 56.69830 39765 ft 436 kts 243°
2026-04-27 19:29 27.34185 56.63970 39760 ft 436 kts 243°
2026-04-27 19:30 27.31087 56.58119 39754 ft 436 kts 243°
2026-04-27 19:30 27.27983 56.52263 39753 ft 436 kts 243°
2026-04-27 19:31 27.24880 56.46416 39748 ft 436 kts 243°
2026-04-27 19:31 27.21773 56.40571 39745 ft 436 kts 243°
2026-04-27 19:32 27.18141 56.35138 39741 ft 443 kts 230°
2026-04-27 19:32 27.13696 56.30288 39737 ft 446 kts 228°
2026-04-27 19:33 27.09114 56.25523 39731 ft 446 kts 228°
2026-04-27 19:33 27.04551 56.20791 39729 ft 446 kts 228°
2026-04-27 19:34 27.00016 56.16039 39729 ft 446 kts 229°
2026-04-27 19:34 26.95523 56.11231 39730 ft 446 kts 229°
2026-04-27 19:35 26.91029 56.06419 39730 ft 447 kts 229°
2026-04-27 19:35 26.86555 56.01651 39724 ft 447 kts 229°
2026-04-27 19:36 26.82110 55.96805 39733 ft 444 kts 232°
2026-04-27 19:36 26.78635 55.91133 39732 ft 436 kts 247°
2026-04-27 19:37 26.76814 55.84726 39731 ft 432 kts 262°
2026-04-27 19:37 26.76596 55.78054 39726 ft 433 kts 271°
2026-04-27 19:38 26.76806 55.71314 39731 ft 434 kts 271°
2026-04-27 19:38 26.77037 55.64565 39730 ft 434 kts 271°
2026-04-27 19:39 26.77237 55.57812 39732 ft 434 kts 271°
2026-04-27 19:39 26.77419 55.51054 39738 ft 434 kts 271°
2026-04-27 19:40 26.77594 55.44301 39744 ft 434 kts 271°
2026-04-27 19:40 26.77767 55.37540 39743 ft 434 kts 271°
2026-04-27 19:41 26.77937 55.30793 39744 ft 434 kts 270°
2026-04-27 19:41 26.78104 55.24038 39746 ft 434 kts 270°
2026-04-27 19:42 26.78268 55.17292 39754 ft 434 kts 270°
2026-04-27 19:42 26.78428 55.10540 39758 ft 434 kts 270°
2026-04-27 19:43 26.78560 55.04937 39765 ft 433 kts 270°
2026-04-27 19:43 26.78715 54.98203 39763 ft 434 kts 270°
2026-04-27 19:44 26.78865 54.91449 39767 ft 433 kts 270°
2026-04-27 19:44 26.79005 54.84713 39772 ft 433 kts 270°
2026-04-27 19:45 26.79140 54.77992 39774 ft 432 kts 270°
2026-04-27 19:45 26.79274 54.71266 39781 ft 432 kts 270°
2026-04-27 19:46 26.79405 54.64539 39779 ft 432 kts 270°
2026-04-27 19:46 26.79537 54.57814 39784 ft 432 kts 270°
2026-04-27 19:47 26.79657 54.51104 39784 ft 431 kts 270°
2026-04-27 19:47 26.79769 54.44393 39788 ft 431 kts 270°
2026-04-27 19:48 26.79880 54.37686 39788 ft 431 kts 270°
2026-04-27 19:48 26.79991 54.30987 39791 ft 430 kts 270°
2026-04-27 19:49 26.80098 54.24291 39797 ft 430 kts 270°
2026-04-27 19:49 26.80200 54.17610 39795 ft 430 kts 270°
2026-04-27 19:50 26.80299 54.10922 39793 ft 430 kts 270°
2026-04-27 19:50 26.80395 54.04238 39803 ft 430 kts 270°
2026-04-27 19:51 26.80489 53.97553 39801 ft 429 kts 270°
2026-04-27 19:51 26.80579 53.90875 39802 ft 429 kts 270°
2026-04-27 19:52 26.80666 53.84206 39803 ft 429 kts 270°
2026-04-27 19:52 26.80750 53.77579 39803 ft 429 kts 270°
2026-04-27 19:53 26.80870 53.67577 39806 ft 428 kts 269°
2026-04-27 19:53 26.80946 53.60906 39803 ft 428 kts 269°
2026-04-27 19:54 26.81019 53.54240 39807 ft 428 kts 269°
2026-04-27 19:54 26.81089 53.47586 39803 ft 428 kts 269°
2026-04-27 19:55 26.81156 53.40932 39804 ft 427 kts 269°
2026-04-27 19:55 26.81074 53.34283 39802 ft 427 kts 265°
2026-04-27 19:56 26.80621 53.27669 39799 ft 426 kts 265°
2026-04-27 19:56 26.80113 53.21063 39803 ft 426 kts 264°
2026-04-27 19:57 26.79596 53.14468 39804 ft 425 kts 264°
2026-04-27 19:57 26.79083 53.07870 39799 ft 425 kts 264°
2026-04-27 19:58 26.78569 53.01274 39798 ft 425 kts 264°
2026-04-27 19:58 26.78054 52.94682 39800 ft 425 kts 264°
2026-04-27 19:59 26.77536 52.88102 39801 ft 425 kts 264°
2026-04-27 19:59 26.77013 52.81499 39802 ft 425 kts 264°
2026-04-27 20:00 26.76489 52.74921 39802 ft 425 kts 264°
2026-04-27 20:00 26.75964 52.68377 39803 ft 425 kts 264°
2026-04-27 20:01 26.75433 52.61793 39808 ft 425 kts 264°
2026-04-27 20:01 26.74900 52.55215 39807 ft 425 kts 264°
2026-04-27 20:02 26.74363 52.48628 39808 ft 425 kts 264°
2026-04-27 20:02 26.73823 52.42047 39811 ft 425 kts 264°
2026-04-27 20:03 26.73281 52.35481 39809 ft 424 kts 264°
2026-04-27 20:03 26.72735 52.28903 39810 ft 425 kts 264°
2026-04-27 20:04 26.72187 52.22323 39806 ft 425 kts 264°
2026-04-27 20:04 26.71629 52.15743 39809 ft 425 kts 264°
2026-04-27 20:05 26.71062 52.09169 39328 ft 423 kts 264°
2026-04-27 20:05 26.70777 52.05888 38687 ft 424 kts 264°
2026-04-27 20:05 26.70493 52.02607 37947 ft 426 kts 264°
2026-04-27 20:06 26.70203 51.99317 37236 ft 425 kts 264°
2026-04-27 20:06 26.69725 51.96054 36552 ft 425 kts 258°
2026-04-27 20:06 26.68889 51.92883 35862 ft 427 kts 252°
2026-04-27 20:06 26.67657 51.89843 35138 ft 431 kts 245°
2026-04-27 20:07 26.66032 51.87023 34364 ft 437 kts 237°
2026-04-27 20:07 26.64069 51.84389 33570 ft 441 kts 234°
2026-04-27 20:07 26.62014 51.81830 32583 ft 445 kts 232°
2026-04-27 20:07 26.59906 51.79280 31590 ft 449 kts 232°
2026-04-27 20:08 26.57766 51.76714 30634 ft 452 kts 231°
2026-04-27 20:08 26.55620 51.74140 29648 ft 454 kts 231°
2026-04-27 20:08 26.53460 51.71545 28577 ft 457 kts 231°
2026-04-27 20:08 26.51322 51.68967 27897 ft 451 kts 231°
2026-04-27 20:09 26.49201 51.66403 27213 ft 446 kts 231°
2026-04-27 20:09 26.47144 51.63908 26554 ft 442 kts 231°
2026-04-27 20:09 26.45042 51.61357 25842 ft 438 kts 231°
2026-04-27 20:09 26.43000 51.58846 25157 ft 434 kts 233°
2026-04-27 20:10 26.41270 51.56128 24478 ft 426 kts 243°
2026-04-27 20:10 26.40099 51.53133 23808 ft 420 kts 255°
2026-04-27 20:10 26.39584 51.49949 23084 ft 416 kts 267°
2026-04-27 20:10 26.39783 51.46752 22382 ft 412 kts 280°
2026-04-27 20:11 26.40520 51.43675 21719 ft 409 kts 285°
2026-04-27 20:11 26.41421 51.40694 21063 ft 405 kts 288°
2026-04-27 20:11 26.42378 51.37791 20422 ft 402 kts 288°
2026-04-27 20:11 26.43358 51.34892 19763 ft 399 kts 289°
2026-04-27 20:12 26.44326 51.32001 19103 ft 396 kts 288°
2026-04-27 20:12 26.44923 51.30037 18646 ft 394 kts 284°
2026-04-27 20:12 26.45317 51.26055 17718 ft 390 kts 265°
2026-04-27 20:12 26.44728 51.23115 17016 ft 388 kts 251°
2026-04-27 20:13 26.43734 51.20333 16333 ft 386 kts 248°
2026-04-27 20:13 26.42690 51.17578 15670 ft 383 kts 249°
2026-04-27 20:13 26.41660 51.14848 14973 ft 381 kts 249°
2026-04-27 20:13 26.40640 51.12128 14292 ft 379 kts 249°
2026-04-27 20:14 26.39633 51.09433 13745 ft 374 kts 249°
2026-04-27 20:14 26.38640 51.06771 13071 ft 370 kts 249°
2026-04-27 20:14 26.37657 51.04127 12390 ft 367 kts 249°
2026-04-27 20:14 26.36682 51.01510 11712 ft 364 kts 249°
2026-04-27 20:15 26.35711 50.98902 11040 ft 362 kts 249°
2026-04-27 20:15 26.34829 50.96325 10726 ft 349 kts 255°
2026-04-27 20:15 26.34534 50.93723 10606 ft 331 kts 273°
2026-04-27 20:15 26.35021 50.91297 10473 ft 316 kts 291°
2026-04-27 20:16 26.36067 50.89196 10364 ft 303 kts 301°
2026-04-27 20:16 26.37199 50.87279 10231 ft 290 kts 301°
2026-04-27 20:16 26.38284 50.85441 10110 ft 278 kts 301°
2026-04-27 20:16 26.39326 50.83662 9845 ft 272 kts 301°
2026-04-27 20:17 26.40365 50.81875 9381 ft 276 kts 301°
2026-04-27 20:17 26.41410 50.80070 9014 ft 278 kts 300°
2026-04-27 20:17 26.42238 50.78135 8678 ft 276 kts 284°
2026-04-27 20:17 26.42390 50.76737 8452 ft 274 kts 267°
2026-04-27 20:18 26.41567 50.74097 8024 ft 274 kts 234°
2026-04-27 20:18 26.40129 50.72708 7699 ft 278 kts 210°
2026-04-27 20:18 26.38300 50.71962 7366 ft 279 kts 201°
2026-04-27 20:18 26.36659 50.70882 7035 ft 274 kts 226°
2026-04-27 20:19 26.35688 50.69105 6710 ft 269 kts 254°
2026-04-27 20:19 26.35581 50.67045 6389 ft 269 kts 279°
2026-04-27 20:19 26.36334 50.65140 6055 ft 272 kts 306°
2026-04-27 20:19 26.37783 50.63784 5728 ft 276 kts 327°
2026-04-27 20:20 26.39492 50.62796 5394 ft 277 kts 331°
2026-04-27 20:20 26.41204 50.61833 5060 ft 275 kts 328°
2026-04-27 20:20 26.42668 50.60500 4751 ft 269 kts 306°
2026-04-27 20:20 26.43703 50.58824 4618 ft 256 kts 300°
2026-04-27 20:21 26.44633 50.57181 4467 ft 245 kts 300°
2026-04-27 20:21 26.45523 50.55607 4349 ft 235 kts 300°
2026-04-27 20:21 26.46160 50.54012 4214 ft 222 kts 279°
2026-04-27 20:21 26.46031 50.52326 3976 ft 217 kts 247°
2026-04-27 20:22 26.45120 50.51045 3738 ft 218 kts 216°
2026-04-27 20:22 26.43704 50.50477 3501 ft 220 kts 187°
2026-04-27 20:22 26.42183 50.50261 3242 ft 220 kts 192°
2026-04-27 20:22 26.40694 50.49905 2979 ft 219 kts 194°
2026-04-27 20:23 26.39218 50.49509 2719 ft 217 kts 194°
2026-04-27 20:23 26.37749 50.49111 2460 ft 214 kts 193°
2026-04-27 20:23 26.36340 50.48993 2291 ft 197 kts 167°
2026-04-27 20:23 26.35201 50.49672 2221 ft 177 kts 142°
2026-04-27 20:24 26.34390 50.50628 2228 ft 167 kts 126°
2026-04-27 20:24 26.33812 50.51707 2019 ft 158 kts 125°
2026-04-27 20:24 26.33215 50.52709 1811 ft 153 kts 127°
2026-04-27 20:24 26.32658 50.53675 1623 ft 143 kts 125°
2026-04-27 20:25 26.32152 50.54593 1416 ft 136 kts 124°
2026-04-27 20:25 26.31668 50.55489 1256 ft 135 kts 126°
2026-04-27 20:25 26.31162 50.56374 1112 ft 136 kts 126°
2026-04-27 20:25 26.30633 50.57254 951 ft 136 kts 127°
2026-04-27 20:26 26.30098 50.58122 794 ft 136 kts 126°
2026-04-27 20:26 26.29578 50.58997 628 ft 135 kts 122°
2026-04-27 20:26 26.29087 50.59888 452 ft 136 kts 120°
2026-04-27 20:26 26.28595 50.60779 288 ft 135 kts 121°
2026-04-27 20:27 26.28082 50.61655 110 ft 134 kts 122°
2026-04-27 20:27 26.27573 50.62519 26 ft 131 kts 123°
2026-04-27 20:27 26.27153 50.63241 21 ft 77 kts 124°
2026-04-27 20:27 26.27001 50.63471 21 ft 10 kts 156°
2026-04-27 20:28 26.26944 50.63466 21 ft 0 kts 200°
2026-04-27 20:28 26.26943 50.63466 21 ft 0 kts 200°
2026-04-27 20:30 26.26913 50.63450 21 ft 10 kts 207°
2026-04-27 20:30 26.26850 50.63408 21 ft 11 kts 213°
2026-04-27 20:30 26.26805 50.63375 22 ft 0 kts 212°
2026-04-27 20:31 26.26795 50.63368 23 ft 6 kts 212°
2026-04-27 20:31 26.26776 50.63363 23 ft 0 kts 182°
2026-04-27 20:31 26.26763 50.63371 24 ft 4 kts 143°
2026-04-27 20:31 26.26751 50.63390 23 ft 0 kts 126°
2026-04-27 20:32 26.26743 50.63402 23 ft 6 kts 126°
2026-04-27 20:32 26.26703 50.63466 24 ft 13 kts 124°
2026-04-27 20:32 26.26655 50.63507 26 ft 0 kts 172°
2026-04-27 20:33 26.26654 50.63506 24 ft 1 kts 179°
2026-04-27 20:33 26.26622 50.63486 26 ft 9 kts 211°
2026-04-27 20:33 26.26595 50.63469 24 ft 0 kts 211°